Time,TemperatureF,DewpointF,PressureIn,WindDirection,WindDirectionDegrees,WindSpeedMPH,WindSpeedGustMPH,Humidity,HourlyPrecipIn,Conditions,Clouds,dailyrainin,SoftwareType,DateUTC
2013-01-06 00:00:00,30.7,7.6,0.00,West,265,0.0,0.0,37,0.00,,,0.00,VWS V14.01,2013-01-06 05:00:00,
2013-01-06 00:02:00,30.7,7.6,0.00,West,265,0.0,0.0,37,0.00,,,0.00,VWS V14.01,2013-01-06 05:02:00,
2013-01-06 00:04:00,30.7,7.6,0.00,West,265,0.0,0.0,37,0.00,,,0.00,VWS V14.01,2013-01-06 05:04:00,
2013-01-06 00:05:00,30.7,7.6,0.00,West,265,0.0,0.0,37,0.00,,,0.00,VWS V14.01,2013-01-06 05:05:00,
2013-01-06 00:06:00,30.7,7.6,0.00,West,265,0.0,0.0,37,0.00,,,0.00,VWS V14.01,2013-01-06 05:06:00,
2013-01-06 00:07:00,30.7,7.6,0.00,West,265,0.0,0.0,37,0.00,,,0.00,VWS V14.01,2013-01-06 05:07:00,
2013-01-06 00:10:00,30.9,7.7,0.00,West,265,0.0,0.0,37,0.00,,,0.00,VWS V14.01,2013-01-06 05:10:00,
2013-01-06 00:13:00,30.9,7.7,0.00,West,265,0.0,0.0,37,0.00,,,0.00,VWS V14.01,2013-01-06 05:13:00,
2013-01-06 00:14:00,30.9,7.7,0.00,West,265,0.0,0.0,37,0.00,,,0.00,VWS V14.01,2013-01-06 05:14:00,
2013-01-06 00:16:00,30.9,7.7,0.00,West,265,0.0,0.0,37,0.00,,,0.00,VWS V14.01,2013-01-06 05:16:00,
2013-01-06 00:18:00,30.9,7.7,0.00,West,265,0.0,0.0,37,0.00,,,0.00,VWS V14.01,2013-01-06 05:18:00,
2013-01-06 00:20:00,30.9,7.7,0.00,West,265,0.0,0.0,37,0.00,,,0.00,VWS V14.01,2013-01-06 05:20:00,
2013-01-06 00:21:00,30.9,7.7,0.00,West,265,0.0,0.0,37,0.00,,,0.00,VWS V14.01,2013-01-06 05:21:00,
2013-01-06 00:23:00,30.9,7.7,0.00,West,265,0.0,0.0,37,0.00,,,0.00,VWS V14.01,2013-01-06 05:23:00,
2013-01-06 00:26:00,30.9,8.3,0.00,West,265,0.0,0.0,38,0.00,,,0.00,VWS V14.01,2013-01-06 05:26:00,
2013-01-06 00:28:00,30.9,8.3,0.00,West,265,0.0,0.0,38,0.00,,,0.00,VWS V14.01,2013-01-06 05:28:00,
2013-01-06 00:29:00,30.9,8.3,0.00,West,265,0.0,0.0,38,0.00,,,0.00,VWS V14.01,2013-01-06 05:29:00,
2013-01-06 00:31:00,30.9,8.3,0.00,West,265,0.0,0.0,38,0.00,,,0.00,VWS V14.01,2013-01-06 05:31:00,
2013-01-06 00:33:00,30.9,8.3,0.00,West,265,0.0,0.0,38,0.00,,,0.00,VWS V14.01,2013-01-06 05:33:00,
2013-01-06 00:34:00,30.9,8.3,0.00,West,265,0.0,0.0,38,0.00,,,0.00,VWS V14.01,2013-01-06 05:34:00,
2013-01-06 00:36:00,30.9,8.9,0.00,West,265,0.0,0.0,39,0.00,,,0.00,VWS V14.01,2013-01-06 05:36:00,
2013-01-06 00:37:00,30.9,8.9,0.00,West,265,0.0,0.0,39,0.00,,,0.00,VWS V14.01,2013-01-06 05:37:00,
2013-01-06 00:38:00,30.9,8.9,0.00,West,265,0.0,0.0,39,0.00,,,0.00,VWS V14.01,2013-01-06 05:38:00,
2013-01-06 00:41:00,30.7,9.3,0.00,West,265,0.0,0.0,40,0.00,,,0.00,VWS V14.01,2013-01-06 05:41:00,
2013-01-06 00:43:00,30.7,9.3,0.00,West,265,0.0,0.0,40,0.00,,,0.00,VWS V14.01,2013-01-06 05:43:00,
2013-01-06 00:44:00,30.6,9.1,0.00,West,265,0.0,0.0,40,0.00,,,0.00,VWS V14.01,2013-01-06 05:44:00,
2013-01-06 00:48:00,30.6,9.1,0.00,West,265,0.0,0.0,40,0.00,,,0.00,VWS V14.01,2013-01-06 05:48:00,
2013-01-06 00:49:00,30.6,9.1,0.00,West,265,0.0,0.0,40,0.00,,,0.00,VWS V14.01,2013-01-06 05:49:00,
2013-01-06 00:54:00,30.4,9.0,0.00,West,265,0.0,0.0,40,0.00,,,0.00,VWS V14.01,2013-01-06 05:54:00,
2013-01-06 00:55:00,30.4,9.0,0.00,West,265,0.0,0.0,40,0.00,,,0.00,VWS V14.01,2013-01-06 05:55:00,
2013-01-06 01:00:00,30.4,9.0,0.00,NNE,12,2.7,2.7,40,0.00,,,0.00,VWS V14.01,2013-01-06 06:00:00,
2013-01-06 01:01:00,30.4,9.0,0.00,NNE,12,2.2,2.7,40,0.00,,,0.00,VWS V14.01,2013-01-06 06:01:00,
2013-01-06 01:03:00,30.4,9.0,0.00,NNE,12,0.0,0.0,40,0.00,,,0.00,VWS V14.01,2013-01-06 06:03:00,
2013-01-06 01:06:00,30.4,9.0,0.00,NNE,12,0.0,0.0,40,0.00,,,0.00,VWS V14.01,2013-01-06 06:06:00,
2013-01-06 01:07:00,30.4,9.0,0.00,NNE,12,0.0,0.0,40,0.00,,,0.00,VWS V14.01,2013-01-06 06:07:00,
2013-01-06 01:08:00,30.4,9.0,0.00,NNE,12,0.0,0.0,40,0.00,,,0.00,VWS V14.01,2013-01-06 06:08:00,
2013-01-06 01:12:00,30.6,9.1,0.00,NNE,12,0.0,0.0,40,0.00,,,0.00,VWS V14.01,2013-01-06 06:12:00,
2013-01-06 01:13:00,30.6,9.1,0.00,NNE,12,0.0,0.0,40,0.00,,,0.00,VWS V14.01,2013-01-06 06:13:00,
2013-01-06 01:17:00,30.6,9.1,0.00,NNE,12,0.0,0.0,40,0.00,,,0.00,VWS V14.01,2013-01-06 06:17:00,
2013-01-06 01:18:00,30.6,9.1,0.00,NNE,12,0.0,0.0,40,0.00,,,0.00,VWS V14.01,2013-01-06 06:18:00,
2013-01-06 01:19:00,30.6,9.1,0.00,NNE,12,0.0,0.0,40,0.00,,,0.00,VWS V14.01,2013-01-06 06:19:00,
2013-01-06 01:21:00,30.7,9.3,0.00,NNE,12,0.0,0.0,40,0.00,,,0.00,VWS V14.01,2013-01-06 06:21:00,
2013-01-06 01:24:00,30.7,9.3,0.00,NNE,12,0.0,0.0,40,0.00,,,0.00,VWS V14.01,2013-01-06 06:24:00,
2013-01-06 01:26:00,30.7,9.3,0.00,NNE,12,0.0,0.0,40,0.00,,,0.00,VWS V14.01,2013-01-06 06:26:00,
2013-01-06 01:30:00,30.7,9.3,0.00,NNE,12,0.0,0.0,40,0.00,,,0.00,VWS V14.01,2013-01-06 06:30:00,
2013-01-06 01:31:00,30.7,9.3,0.00,NNE,12,0.0,0.0,40,0.00,,,0.00,VWS V14.01,2013-01-06 06:31:00,
2013-01-06 01:36:00,30.9,9.4,0.00,NNE,12,0.0,0.0,40,0.00,,,0.00,VWS V14.01,2013-01-06 06:36:00,
2013-01-06 01:37:00,30.9,9.4,0.00,NNE,12,0.0,0.0,40,0.00,,,0.00,VWS V14.01,2013-01-06 06:37:00,
2013-01-06 01:40:00,30.9,9.4,0.00,SE,139,0.0,0.0,40,0.00,,,0.00,VWS V14.01,2013-01-06 06:40:00,
2013-01-06 01:42:00,30.9,9.4,0.00,ESE,114,0.0,0.0,40,0.00,,,0.00,VWS V14.01,2013-01-06 06:42:00,
2013-01-06 01:44:00,30.9,9.4,0.00,ESE,114,0.0,0.0,40,0.00,,,0.00,VWS V14.01,2013-01-06 06:44:00,
2013-01-06 01:47:00,31.1,10.2,0.00,ESE,113,0.0,0.0,41,0.00,,,0.00,VWS V14.01,2013-01-06 06:47:00,
2013-01-06 01:48:00,31.1,10.2,0.00,ESE,115,0.0,0.0,41,0.00,,,0.00,VWS V14.01,2013-01-06 06:48:00,
2013-01-06 01:49:00,31.1,10.2,0.00,ESE,115,0.0,0.0,41,0.00,,,0.00,VWS V14.01,2013-01-06 06:49:00,
2013-01-06 01:50:00,31.1,10.2,0.00,ESE,115,0.0,0.0,41,0.00,,,0.00,VWS V14.01,2013-01-06 06:50:00,
2013-01-06 01:52:00,31.1,10.2,0.00,ESE,115,0.0,0.0,41,0.00,,,0.00,VWS V14.01,2013-01-06 06:52:00,
2013-01-06 01:54:00,31.1,10.2,0.00,ESE,115,0.0,0.0,41,0.00,,,0.00,VWS V14.01,2013-01-06 06:54:00,
2013-01-06 01:55:00,31.1,10.2,0.00,East,83,0.0,0.0,41,0.00,,,0.00,VWS V14.01,2013-01-06 06:55:00,
2013-01-06 01:57:00,31.1,10.2,0.00,East,83,0.0,0.0,41,0.00,,,0.00,VWS V14.01,2013-01-06 06:57:00,
2013-01-06 01:59:00,31.1,10.2,0.00,East,83,0.0,0.0,41,0.00,,,0.00,VWS V14.01,2013-01-06 06:59:00,
2013-01-06 02:00:00,31.1,10.2,0.00,East,83,0.0,0.0,41,0.00,,,0.00,VWS V14.01,2013-01-06 07:00:00,
2013-01-06 02:04:00,31.1,10.2,0.00,East,83,0.0,0.0,41,0.00,,,0.00,VWS V14.01,2013-01-06 07:04:00,
2013-01-06 02:06:00,31.1,10.2,0.00,East,83,0.0,0.0,41,0.00,,,0.00,VWS V14.01,2013-01-06 07:06:00,
2013-01-06 02:07:00,31.1,10.2,0.00,East,83,0.0,0.0,41,0.00,,,0.00,VWS V14.01,2013-01-06 07:07:00,
2013-01-06 02:09:00,31.1,10.2,0.00,East,83,0.0,0.0,41,0.00,,,0.00,VWS V14.01,2013-01-06 07:09:00,
2013-01-06 02:11:00,31.1,10.2,0.00,East,83,0.0,0.0,41,0.00,,,0.00,VWS V14.01,2013-01-06 07:11:00,
2013-01-06 02:13:00,31.1,10.2,0.00,East,83,0.0,0.0,41,0.00,,,0.00,VWS V14.01,2013-01-06 07:13:00,
2013-01-06 02:15:00,31.1,10.2,0.00,East,83,0.0,0.0,41,0.00,,,0.00,VWS V14.01,2013-01-06 07:15:00,
2013-01-06 02:18:00,30.9,10.0,0.00,East,83,0.0,0.0,41,0.00,,,0.00,VWS V14.01,2013-01-06 07:18:00,
2013-01-06 02:19:00,30.9,10.0,0.00,East,83,0.0,0.0,41,0.00,,,0.00,VWS V14.01,2013-01-06 07:19:00,
2013-01-06 02:21:00,30.9,10.0,0.00,East,83,0.0,0.0,41,0.00,,,0.00,VWS V14.01,2013-01-06 07:21:00,
2013-01-06 02:23:00,30.9,10.0,0.00,East,83,0.0,0.0,41,0.00,,,0.00,VWS V14.01,2013-01-06 07:23:00,
2013-01-06 02:24:00,30.9,10.0,0.00,East,83,0.0,0.0,41,0.00,,,0.00,VWS V14.01,2013-01-06 07:24:00,
2013-01-06 02:25:00,30.9,10.0,0.00,East,83,0.0,0.0,41,0.00,,,0.00,VWS V14.01,2013-01-06 07:25:00,
2013-01-06 02:27:00,30.7,9.8,0.00,East,83,0.0,0.0,41,0.00,,,0.00,VWS V14.01,2013-01-06 07:27:00,
2013-01-06 02:29:00,30.7,9.8,0.00,East,83,0.0,0.0,41,0.00,,,0.00,VWS V14.01,2013-01-06 07:29:00,
2013-01-06 02:30:00,30.7,10.4,0.00,East,83,0.0,0.0,42,0.00,,,0.00,VWS V14.01,2013-01-06 07:30:00,
2013-01-06 02:31:00,30.7,10.4,0.00,East,83,0.0,0.0,42,0.00,,,0.00,VWS V14.01,2013-01-06 07:31:00,
2013-01-06 02:33:00,30.7,10.4,0.00,East,83,0.0,0.0,42,0.00,,,0.00,VWS V14.01,2013-01-06 07:33:00,
2013-01-06 02:34:00,30.7,10.4,0.00,East,83,0.0,0.0,42,0.00,,,0.00,VWS V14.01,2013-01-06 07:34:00,
2013-01-06 02:36:00,30.7,10.4,0.00,East,83,0.0,0.0,42,0.00,,,0.00,VWS V14.01,2013-01-06 07:36:00,
2013-01-06 02:37:00,30.7,10.4,0.00,East,83,0.0,0.0,42,0.00,,,0.00,VWS V14.01,2013-01-06 07:37:00,
2013-01-06 02:38:00,30.7,10.4,0.00,East,83,0.0,0.0,42,0.00,,,0.00,VWS V14.01,2013-01-06 07:38:00,
2013-01-06 02:41:00,30.7,10.9,0.00,East,83,0.0,0.0,43,0.00,,,0.00,VWS V14.01,2013-01-06 07:41:00,
2013-01-06 02:43:00,30.7,10.9,0.00,East,83,0.0,0.0,43,0.00,,,0.00,VWS V14.01,2013-01-06 07:43:00,
2013-01-06 02:44:00,30.7,10.9,0.00,NNE,29,0.0,0.0,43,0.00,,,0.00,VWS V14.01,2013-01-06 07:44:00,
2013-01-06 02:48:00,30.7,10.9,0.00,NNE,29,0.0,0.0,43,0.00,,,0.00,VWS V14.01,2013-01-06 07:48:00,
2013-01-06 02:50:00,30.7,10.9,0.00,NNE,29,0.0,0.0,43,0.00,,,0.00,VWS V14.01,2013-01-06 07:50:00,
2013-01-06 02:51:00,30.7,10.9,0.00,NNE,29,0.0,0.0,43,0.00,,,0.00,VWS V14.01,2013-01-06 07:51:00,
2013-01-06 02:53:00,30.7,10.9,0.00,NNE,29,0.0,0.0,43,0.00,,,0.00,VWS V14.01,2013-01-06 07:53:00,
2013-01-06 02:55:00,30.7,10.9,0.00,NNE,29,0.0,0.0,43,0.00,,,0.00,VWS V14.01,2013-01-06 07:55:00,
2013-01-06 02:56:00,30.9,11.1,0.00,NNE,29,0.0,0.0,43,0.00,,,0.00,VWS V14.01,2013-01-06 07:56:00,
2013-01-06 02:58:00,30.9,11.1,0.00,NNE,29,0.0,0.0,43,0.00,,,0.00,VWS V14.01,2013-01-06 07:58:00,
2013-01-06 03:01:00,30.9,11.1,0.00,NNE,29,0.0,0.0,43,0.00,,,0.00,VWS V14.01,2013-01-06 08:01:00,
2013-01-06 03:02:00,30.9,11.1,0.00,NNE,29,0.0,0.0,43,0.00,,,0.00,VWS V14.01,2013-01-06 08:02:00,
2013-01-06 03:04:00,30.9,11.1,0.00,NNE,29,0.0,0.0,43,0.00,,,0.00,VWS V14.01,2013-01-06 08:04:00,
2013-01-06 03:08:00,31.1,11.2,0.00,NNE,27,0.0,0.0,43,0.00,,,0.00,VWS V14.01,2013-01-06 08:08:00,
2013-01-06 03:09:00,31.1,11.2,0.00,NNE,24,0.0,0.0,43,0.00,,,0.00,VWS V14.01,2013-01-06 08:09:00,
2013-01-06 03:14:00,31.1,11.8,0.00,North,6,0.0,0.0,44,0.00,,,0.00,VWS V14.01,2013-01-06 08:14:00,
2013-01-06 03:15:00,31.1,11.8,0.00,North,6,0.0,0.0,44,0.00,,,0.00,VWS V14.01,2013-01-06 08:15:00,
2013-01-06 03:16:00,31.1,11.8,0.00,North,6,0.0,0.0,44,0.00,,,0.00,VWS V14.01,2013-01-06 08:16:00,
2013-01-06 03:19:00,31.1,11.8,0.00,North,6,0.0,0.0,44,0.00,,,0.00,VWS V14.01,2013-01-06 08:19:00,
2013-01-06 03:20:00,31.1,11.8,0.00,North,6,0.0,0.0,44,0.00,,,0.00,VWS V14.01,2013-01-06 08:20:00,
2013-01-06 03:23:00,31.1,11.8,0.00,North,6,0.0,0.0,44,0.00,,,0.00,VWS V14.01,2013-01-06 08:23:00,
2013-01-06 03:25:00,31.1,11.8,0.00,North,6,0.0,0.0,44,0.00,,,0.00,VWS V14.01,2013-01-06 08:25:00,
2013-01-06 03:28:00,30.9,11.6,0.00,North,6,0.0,0.0,44,0.00,,,0.00,VWS V14.01,2013-01-06 08:28:00,
2013-01-06 03:30:00,30.9,11.6,0.00,North,6,0.0,0.0,44,0.00,,,0.00,VWS V14.01,2013-01-06 08:30:00,
2013-01-06 03:32:00,30.7,11.4,0.00,North,6,0.0,0.0,44,0.00,,,0.00,VWS V14.01,2013-01-06 08:32:00,
2013-01-06 03:33:00,30.7,11.4,0.00,North,6,0.0,0.0,44,0.00,,,0.00,VWS V14.01,2013-01-06 08:33:00,
2013-01-06 03:35:00,30.6,11.2,0.00,North,6,0.0,0.0,44,0.00,,,0.00,VWS V14.01,2013-01-06 08:35:00,
2013-01-06 03:36:00,30.6,11.2,0.00,North,6,0.0,0.0,44,0.00,,,0.00,VWS V14.01,2013-01-06 08:36:00,
2013-01-06 03:37:00,30.6,11.2,0.00,North,6,0.0,0.0,44,0.00,,,0.00,VWS V14.01,2013-01-06 08:37:00,
2013-01-06 03:39:00,30.4,11.1,0.00,North,6,0.0,0.0,44,0.00,,,0.00,VWS V14.01,2013-01-06 08:39:00,
2013-01-06 03:40:00,30.4,11.1,0.00,North,6,0.0,0.0,44,0.00,,,0.00,VWS V14.01,2013-01-06 08:40:00,
2013-01-06 03:42:00,30.4,11.1,0.00,North,6,0.0,0.0,44,0.00,,,0.00,VWS V14.01,2013-01-06 08:42:00,
2013-01-06 03:44:00,30.2,11.4,0.00,North,6,0.0,0.0,45,0.00,,,0.00,VWS V14.01,2013-01-06 08:44:00,
2013-01-06 03:45:00,30.2,11.4,0.00,North,6,0.0,0.0,45,0.00,,,0.00,VWS V14.01,2013-01-06 08:45:00,
2013-01-06 03:46:00,30.2,11.4,0.00,North,6,0.0,0.0,45,0.00,,,0.00,VWS V14.01,2013-01-06 08:46:00,
2013-01-06 03:47:00,30.2,11.4,0.00,North,6,0.0,0.0,45,0.00,,,0.00,VWS V14.01,2013-01-06 08:47:00,
2013-01-06 03:50:00,30.0,11.3,0.00,North,6,0.0,0.0,45,0.00,,,0.00,VWS V14.01,2013-01-06 08:50:00,
2013-01-06 03:51:00,30.0,11.3,0.00,North,6,0.0,0.0,45,0.00,,,0.00,VWS V14.01,2013-01-06 08:51:00,
2013-01-06 03:52:00,29.8,11.1,0.00,North,6,0.0,0.0,45,0.00,,,0.00,VWS V14.01,2013-01-06 08:52:00,
2013-01-06 03:56:00,29.7,10.9,0.00,North,6,0.0,0.0,45,0.00,,,0.00,VWS V14.01,2013-01-06 08:56:00,
2013-01-06 03:58:00,29.7,10.9,0.00,North,6,0.0,0.0,45,0.00,,,0.00,VWS V14.01,2013-01-06 08:58:00,
2013-01-06 04:01:00,29.5,10.8,0.00,North,6,0.0,0.0,45,0.00,,,0.00,VWS V14.01,2013-01-06 09:01:00,
2013-01-06 04:04:00,29.3,10.6,0.00,North,6,0.0,0.0,45,0.00,,,0.00,VWS V14.01,2013-01-06 09:04:00,
2013-01-06 04:05:00,29.3,10.6,0.00,North,6,0.0,0.0,45,0.00,,,0.00,VWS V14.01,2013-01-06 09:05:00,
2013-01-06 04:07:00,29.1,10.4,0.00,North,6,0.0,0.0,45,0.00,,,0.00,VWS V14.01,2013-01-06 09:07:00,
2013-01-06 04:08:00,29.1,10.4,0.00,North,6,0.0,0.0,45,0.00,,,0.00,VWS V14.01,2013-01-06 09:08:00,
2013-01-06 04:09:00,28.9,10.3,0.00,North,6,0.0,0.0,45,0.00,,,0.00,VWS V14.01,2013-01-06 09:09:00,
2013-01-06 04:10:00,28.9,10.3,0.00,North,6,0.0,0.0,45,0.00,,,0.00,VWS V14.01,2013-01-06 09:10:00,
2013-01-06 04:13:00,28.9,10.3,0.00,North,6,0.0,0.0,45,0.00,,,0.00,VWS V14.01,2013-01-06 09:13:00,
2013-01-06 04:15:00,28.8,10.1,0.00,North,6,0.0,0.0,45,0.00,,,0.00,VWS V14.01,2013-01-06 09:15:00,
2013-01-06 04:18:00,28.8,10.1,0.00,North,6,0.0,0.0,45,0.00,,,0.00,VWS V14.01,2013-01-06 09:18:00,
2013-01-06 04:19:00,28.6,9.9,0.00,North,6,0.0,0.0,45,0.00,,,0.00,VWS V14.01,2013-01-06 09:19:00,
2013-01-06 04:21:00,28.6,9.9,0.00,North,6,0.0,0.0,45,0.00,,,0.00,VWS V14.01,2013-01-06 09:21:00,
2013-01-06 04:22:00,28.6,9.9,0.00,North,6,0.0,0.0,45,0.00,,,0.00,VWS V14.01,2013-01-06 09:22:00,
2013-01-06 04:23:00,28.4,10.3,0.00,North,6,0.0,0.0,46,0.00,,,0.00,VWS V14.01,2013-01-06 09:23:00,
2013-01-06 04:25:00,28.4,10.3,0.00,North,6,0.0,0.0,46,0.00,,,0.00,VWS V14.01,2013-01-06 09:25:00,
2013-01-06 04:27:00,28.2,10.1,0.00,North,6,0.0,0.0,46,0.00,,,0.00,VWS V14.01,2013-01-06 09:27:00,
2013-01-06 04:28:00,28.2,10.1,0.00,North,6,0.0,0.0,46,0.00,,,0.00,VWS V14.01,2013-01-06 09:28:00,
2013-01-06 04:29:00,28.2,10.1,0.00,North,6,0.0,0.0,46,0.00,,,0.00,VWS V14.01,2013-01-06 09:29:00,
2013-01-06 04:32:00,27.9,9.8,0.00,North,6,0.0,0.0,46,0.00,,,0.00,VWS V14.01,2013-01-06 09:32:00,
2013-01-06 04:33:00,27.9,9.8,0.00,North,6,0.0,0.0,46,0.00,,,0.00,VWS V14.01,2013-01-06 09:33:00,
2013-01-06 04:35:00,27.9,9.8,0.00,North,6,0.0,0.0,46,0.00,,,0.00,VWS V14.01,2013-01-06 09:35:00,
2013-01-06 04:36:00,27.9,9.8,0.00,North,6,0.0,0.0,46,0.00,,,0.00,VWS V14.01,2013-01-06 09:36:00,
2013-01-06 04:40:00,27.7,9.6,0.00,North,6,0.0,0.0,46,0.00,,,0.00,VWS V14.01,2013-01-06 09:40:00,
2013-01-06 04:41:00,27.7,9.6,0.00,North,6,0.0,0.0,46,0.00,,,0.00,VWS V14.01,2013-01-06 09:41:00,
2013-01-06 04:42:00,27.7,9.6,0.00,North,6,0.0,0.0,46,0.00,,,0.00,VWS V14.01,2013-01-06 09:42:00,
2013-01-06 04:46:00,27.7,9.6,0.00,North,6,0.0,0.0,46,0.00,,,0.00,VWS V14.01,2013-01-06 09:46:00,
2013-01-06 04:47:00,27.5,9.4,0.00,North,6,0.0,0.0,46,0.00,,,0.00,VWS V14.01,2013-01-06 09:47:00,
2013-01-06 04:48:00,27.5,9.4,0.00,North,6,0.0,0.0,46,0.00,,,0.00,VWS V14.01,2013-01-06 09:48:00,
2013-01-06 04:53:00,27.3,9.3,0.00,North,6,0.0,0.0,46,0.00,,,0.00,VWS V14.01,2013-01-06 09:53:00,
2013-01-06 04:54:00,27.1,9.1,0.00,North,6,0.0,0.0,46,0.00,,,0.00,VWS V14.01,2013-01-06 09:54:00,
2013-01-06 04:58:00,27.0,8.9,0.00,North,6,0.0,0.0,46,0.00,,,0.00,VWS V14.01,2013-01-06 09:58:00,
2013-01-06 04:59:00,27.0,8.9,0.00,North,6,0.0,0.0,46,0.00,,,0.00,VWS V14.01,2013-01-06 09:59:00,
2013-01-06 05:00:00,27.0,8.9,0.00,North,6,0.0,0.0,46,0.00,,,0.00,VWS V14.01,2013-01-06 10:00:00,
2013-01-06 05:04:00,26.8,9.3,0.00,North,6,0.0,0.0,47,0.00,,,0.00,VWS V14.01,2013-01-06 10:04:00,
2013-01-06 05:05:00,26.8,8.8,0.00,North,6,0.0,0.0,46,0.00,,,0.00,VWS V14.01,2013-01-06 10:05:00,
2013-01-06 05:09:00,26.6,9.1,0.00,North,6,0.0,0.0,47,0.00,,,0.00,VWS V14.01,2013-01-06 10:09:00,
2013-01-06 05:11:00,26.4,8.9,0.00,North,6,0.0,0.0,47,0.00,,,0.00,VWS V14.01,2013-01-06 10:11:00,
2013-01-06 05:13:00,26.2,8.8,0.00,North,6,0.0,0.0,47,0.00,,,0.00,VWS V14.01,2013-01-06 10:13:00,
2013-01-06 05:16:00,26.1,8.6,0.00,North,6,0.0,0.0,47,0.00,,,0.00,VWS V14.01,2013-01-06 10:16:00,
2013-01-06 05:17:00,26.1,8.6,0.00,North,6,0.0,0.0,47,0.00,,,0.00,VWS V14.01,2013-01-06 10:17:00,
2013-01-06 05:19:00,26.1,8.6,0.00,North,6,0.0,0.0,47,0.00,,,0.00,VWS V14.01,2013-01-06 10:19:00,
2013-01-06 05:21:00,25.9,8.4,0.00,North,6,0.0,0.0,47,0.00,,,0.00,VWS V14.01,2013-01-06 10:21:00,
2013-01-06 05:24:00,25.7,8.3,0.00,North,6,0.0,0.0,47,0.00,,,0.00,VWS V14.01,2013-01-06 10:24:00,
2013-01-06 05:25:00,25.7,8.3,0.00,North,6,0.0,0.0,47,0.00,,,0.00,VWS V14.01,2013-01-06 10:25:00,
2013-01-06 05:26:00,25.7,8.3,0.00,North,6,0.0,0.0,47,0.00,,,0.00,VWS V14.01,2013-01-06 10:26:00,
2013-01-06 05:30:00,25.3,7.9,0.00,North,6,0.0,0.0,47,0.00,,,0.00,VWS V14.01,2013-01-06 10:30:00,
2013-01-06 05:31:00,25.3,7.9,0.00,North,6,0.0,0.0,47,0.00,,,0.00,VWS V14.01,2013-01-06 10:31:00,
2013-01-06 05:32:00,25.3,7.9,0.00,North,6,0.0,0.0,47,0.00,,,0.00,VWS V14.01,2013-01-06 10:32:00,
2013-01-06 05:35:00,25.2,7.8,0.00,North,6,0.0,0.0,47,0.00,,,0.00,VWS V14.01,2013-01-06 10:35:00,
2013-01-06 05:37:00,25.2,7.8,0.00,North,6,0.0,0.0,47,0.00,,,0.00,VWS V14.01,2013-01-06 10:37:00,
2013-01-06 05:38:00,25.2,7.8,0.00,North,6,0.0,0.0,47,0.00,,,0.00,VWS V14.01,2013-01-06 10:38:00,
2013-01-06 05:41:00,25.0,7.6,0.00,North,6,0.0,0.0,47,0.00,,,0.00,VWS V14.01,2013-01-06 10:41:00,
2013-01-06 05:43:00,25.0,7.6,0.00,North,6,0.0,0.0,47,0.00,,,0.00,VWS V14.01,2013-01-06 10:43:00,
2013-01-06 05:46:00,25.0,7.6,0.00,North,6,0.0,0.0,47,0.00,,,0.00,VWS V14.01,2013-01-06 10:46:00,
2013-01-06 05:48:00,24.8,7.9,0.00,North,6,0.0,0.0,48,0.00,,,0.00,VWS V14.01,2013-01-06 10:48:00,
2013-01-06 05:49:00,24.8,7.9,0.00,North,6,0.0,0.0,48,0.00,,,0.00,VWS V14.01,2013-01-06 10:49:00,
2013-01-06 05:53:00,24.8,7.9,0.00,North,6,0.0,0.0,48,0.00,,,0.00,VWS V14.01,2013-01-06 10:53:00,
2013-01-06 05:55:00,24.6,7.7,0.00,North,6,0.0,0.0,48,0.00,,,0.00,VWS V14.01,2013-01-06 10:55:00,
2013-01-06 05:56:00,24.6,7.7,0.00,North,6,0.0,0.0,48,0.00,,,0.00,VWS V14.01,2013-01-06 10:56:00,
2013-01-06 05:58:00,24.6,7.7,0.00,North,6,0.0,0.0,48,0.00,,,0.00,VWS V14.01,2013-01-06 10:58:00,
2013-01-06 05:59:00,24.4,7.6,0.00,North,6,0.0,0.0,48,0.00,,,0.00,VWS V14.01,2013-01-06 10:59:00,
2013-01-06 06:01:00,24.4,7.6,0.00,North,6,0.0,0.0,48,0.00,,,0.00,VWS V14.01,2013-01-06 11:01:00,
2013-01-06 06:04:00,24.4,7.6,0.00,North,6,0.0,0.0,48,0.00,,,0.00,VWS V14.01,2013-01-06 11:04:00,
2013-01-06 06:06:00,24.4,7.6,0.00,North,6,0.0,0.0,48,0.00,,,0.00,VWS V14.01,2013-01-06 11:06:00,
2013-01-06 06:07:00,24.4,7.6,0.00,North,6,0.0,0.0,48,0.00,,,0.00,VWS V14.01,2013-01-06 11:07:00,
2013-01-06 06:09:00,24.4,7.6,0.00,North,6,0.0,0.0,48,0.00,,,0.00,VWS V14.01,2013-01-06 11:09:00,
2013-01-06 06:10:00,24.4,7.6,0.00,North,6,0.0,0.0,48,0.00,,,0.00,VWS V14.01,2013-01-06 11:10:00,
2013-01-06 06:11:00,24.4,7.6,0.00,North,6,0.0,0.0,48,0.00,,,0.00,VWS V14.01,2013-01-06 11:11:00,
2013-01-06 06:12:00,24.4,7.6,0.00,North,6,0.0,0.0,48,0.00,,,0.00,VWS V14.01,2013-01-06 11:12:00,
2013-01-06 06:15:00,24.4,7.6,0.00,North,6,0.0,0.0,48,0.00,,,0.00,VWS V14.01,2013-01-06 11:15:00,
2013-01-06 06:16:00,24.3,7.4,0.00,North,6,0.0,0.0,48,0.00,,,0.00,VWS V14.01,2013-01-06 11:16:00,
2013-01-06 06:17:00,24.3,7.4,0.00,North,6,0.0,0.0,48,0.00,,,0.00,VWS V14.01,2013-01-06 11:17:00,
2013-01-06 06:18:00,24.3,7.4,0.00,North,6,0.0,0.0,48,0.00,,,0.00,VWS V14.01,2013-01-06 11:18:00,
2013-01-06 06:21:00,24.1,7.2,0.00,North,6,0.0,0.0,48,0.00,,,0.00,VWS V14.01,2013-01-06 11:21:00,
2013-01-06 06:23:00,24.1,7.2,0.00,North,6,0.0,0.0,48,0.00,,,0.00,VWS V14.01,2013-01-06 11:23:00,
2013-01-06 06:27:00,23.7,6.9,0.00,North,6,0.0,0.0,48,0.00,,,0.00,VWS V14.01,2013-01-06 11:27:00,
2013-01-06 06:28:00,23.7,6.9,0.00,North,6,0.0,0.0,48,0.00,,,0.00,VWS V14.01,2013-01-06 11:28:00,
2013-01-06 06:30:00,23.7,6.9,0.00,North,6,0.0,0.0,48,0.00,,,0.00,VWS V14.01,2013-01-06 11:30:00,
2013-01-06 06:32:00,23.7,7.4,0.00,North,6,0.0,0.0,49,0.00,,,0.00,VWS V14.01,2013-01-06 11:32:00,
2013-01-06 06:35:00,23.7,7.4,0.00,North,6,0.0,0.0,49,0.00,,,0.00,VWS V14.01,2013-01-06 11:35:00,
2013-01-06 06:38:00,23.7,7.4,0.00,North,6,0.0,0.0,49,0.00,,,0.00,VWS V14.01,2013-01-06 11:38:00,
2013-01-06 06:40:00,23.7,7.4,0.00,North,6,0.0,0.0,49,0.00,,,0.00,VWS V14.01,2013-01-06 11:40:00,
2013-01-06 06:41:00,23.7,7.4,0.00,North,6,0.0,0.0,49,0.00,,,0.00,VWS V14.01,2013-01-06 11:41:00,
2013-01-06 06:42:00,23.7,7.4,0.00,North,6,0.0,0.0,49,0.00,,,0.00,VWS V14.01,2013-01-06 11:42:00,
2013-01-06 06:44:00,23.7,7.4,0.00,North,6,0.0,0.0,49,0.00,,,0.00,VWS V14.01,2013-01-06 11:44:00,
2013-01-06 06:46:00,23.7,7.4,0.00,North,6,0.0,0.0,49,0.00,,,0.00,VWS V14.01,2013-01-06 11:46:00,
2013-01-06 06:47:00,23.7,7.4,0.00,North,6,0.0,0.0,49,0.00,,,0.00,VWS V14.01,2013-01-06 11:47:00,
2013-01-06 06:48:00,23.7,7.4,0.00,North,6,0.0,0.0,49,0.00,,,0.00,VWS V14.01,2013-01-06 11:48:00,
2013-01-06 06:51:00,23.7,7.8,0.00,North,6,0.0,0.0,50,0.00,,,0.00,VWS V14.01,2013-01-06 11:51:00,
2013-01-06 06:52:00,23.7,7.8,0.00,North,6,0.0,0.0,50,0.00,,,0.00,VWS V14.01,2013-01-06 11:52:00,
2013-01-06 06:53:00,23.7,7.8,0.00,North,6,0.0,0.0,50,0.00,,,0.00,VWS V14.01,2013-01-06 11:53:00,
2013-01-06 06:56:00,23.7,7.8,0.00,North,6,0.0,0.0,50,0.00,,,0.00,VWS V14.01,2013-01-06 11:56:00,
2013-01-06 06:58:00,23.7,7.8,0.00,North,6,0.0,0.0,50,0.00,,,0.00,VWS V14.01,2013-01-06 11:58:00,
2013-01-06 06:59:00,23.9,8.0,0.00,North,6,0.0,0.0,50,0.00,,,0.00,VWS V14.01,2013-01-06 11:59:00,
2013-01-06 07:01:00,23.9,8.0,0.00,North,6,0.0,0.0,50,0.00,,,0.00,VWS V14.01,2013-01-06 12:01:00,
2013-01-06 07:03:00,23.7,7.8,0.00,North,6,0.0,0.0,50,0.00,,,0.00,VWS V14.01,2013-01-06 12:03:00,
2013-01-06 07:05:00,23.7,7.8,0.00,North,6,0.0,0.0,50,0.00,,,0.00,VWS V14.01,2013-01-06 12:05:00,
2013-01-06 07:06:00,23.7,7.8,0.00,North,6,0.0,0.0,50,0.00,,,0.00,VWS V14.01,2013-01-06 12:06:00,
2013-01-06 07:10:00,23.7,7.8,0.00,North,6,0.0,0.0,50,0.00,,,0.00,VWS V14.01,2013-01-06 12:10:00,
2013-01-06 07:12:00,23.5,7.7,0.00,North,6,0.0,0.0,50,0.00,,,0.00,VWS V14.01,2013-01-06 12:12:00,
2013-01-06 07:16:00,23.7,7.8,0.00,North,6,0.0,0.0,50,0.00,,,0.00,VWS V14.01,2013-01-06 12:16:00,
2013-01-06 07:19:00,23.7,8.2,0.00,North,6,0.0,0.0,51,0.00,,,0.00,VWS V14.01,2013-01-06 12:19:00,
2013-01-06 07:21:00,23.7,8.2,0.00,North,6,0.0,0.0,51,0.00,,,0.00,VWS V14.01,2013-01-06 12:21:00,
2013-01-06 07:24:00,23.9,8.4,0.00,North,6,0.0,0.0,51,0.00,,,0.00,VWS V14.01,2013-01-06 12:24:00,
2013-01-06 07:25:00,23.9,8.4,0.00,North,6,0.0,0.0,51,0.00,,,0.00,VWS V14.01,2013-01-06 12:25:00,
2013-01-06 07:27:00,23.9,8.4,0.00,North,6,0.0,0.0,51,0.00,,,0.00,VWS V14.01,2013-01-06 12:27:00,
2013-01-06 07:30:00,24.1,8.6,0.00,North,6,0.0,0.0,51,0.00,,,0.00,VWS V14.01,2013-01-06 12:30:00,
2013-01-06 07:31:00,24.1,8.6,0.00,North,6,0.0,0.0,51,0.00,,,0.00,VWS V14.01,2013-01-06 12:31:00,
2013-01-06 07:32:00,24.1,8.6,0.00,North,6,0.0,0.0,51,0.00,,,0.00,VWS V14.01,2013-01-06 12:32:00,
2013-01-06 07:33:00,24.1,8.6,0.00,North,6,0.0,0.0,51,0.00,,,0.00,VWS V14.01,2013-01-06 12:33:00,
2013-01-06 07:35:00,24.3,9.2,0.00,North,6,0.0,0.0,52,0.00,,,0.00,VWS V14.01,2013-01-06 12:35:00,
2013-01-06 07:36:00,24.3,9.2,0.00,North,6,0.0,0.0,52,0.00,,,0.00,VWS V14.01,2013-01-06 12:36:00,
2013-01-06 07:39:00,24.4,9.4,0.00,North,6,0.0,0.0,52,0.00,,,0.00,VWS V14.01,2013-01-06 12:39:00,
2013-01-06 07:40:00,24.4,9.4,0.00,North,6,0.0,0.0,52,0.00,,,0.00,VWS V14.01,2013-01-06 12:40:00,
2013-01-06 07:41:00,24.4,9.4,0.00,North,6,0.0,0.0,52,0.00,,,0.00,VWS V14.01,2013-01-06 12:41:00,
2013-01-06 07:42:00,24.4,9.4,0.00,North,6,0.0,0.0,52,0.00,,,0.00,VWS V14.01,2013-01-06 12:42:00,
2013-01-06 07:45:00,24.6,9.5,0.00,North,6,0.0,0.0,52,0.00,,,0.00,VWS V14.01,2013-01-06 12:45:00,
2013-01-06 07:46:00,24.6,9.5,0.00,North,6,0.0,0.0,52,0.00,,,0.00,VWS V14.01,2013-01-06 12:46:00,
2013-01-06 07:47:00,24.8,9.7,0.00,North,6,0.0,0.0,52,0.00,,,0.00,VWS V14.01,2013-01-06 12:47:00,
2013-01-06 07:48:00,24.8,9.7,0.00,North,6,0.0,0.0,52,0.00,,,0.00,VWS V14.01,2013-01-06 12:48:00,
2013-01-06 07:50:00,25.0,9.9,0.00,North,6,0.0,0.0,52,0.00,,,0.00,VWS V14.01,2013-01-06 12:50:00,
2013-01-06 07:52:00,25.0,9.9,0.00,North,6,0.0,0.0,52,0.00,,,0.00,VWS V14.01,2013-01-06 12:52:00,
2013-01-06 07:53:00,25.0,9.9,0.00,North,6,0.0,0.0,52,0.00,,,0.00,VWS V14.01,2013-01-06 12:53:00,
2013-01-06 07:54:00,25.0,9.9,0.00,North,6,0.0,0.0,52,0.00,,,0.00,VWS V14.01,2013-01-06 12:54:00,
2013-01-06 07:56:00,25.2,10.0,0.00,North,6,0.0,0.0,52,0.00,,,0.00,VWS V14.01,2013-01-06 12:56:00,
2013-01-06 07:58:00,25.3,10.2,0.00,North,6,0.0,0.0,52,0.00,,,0.00,VWS V14.01,2013-01-06 12:58:00,
2013-01-06 07:59:00,25.3,10.2,0.00,North,6,0.0,0.0,52,0.00,,,0.00,VWS V14.01,2013-01-06 12:59:00,
2013-01-06 08:00:00,25.3,10.2,0.00,North,6,0.0,0.0,52,0.00,,,0.00,VWS V14.01,2013-01-06 13:00:00,
2013-01-06 08:02:00,25.5,10.4,0.00,North,6,0.0,0.0,52,0.00,,,0.00,VWS V14.01,2013-01-06 13:02:00,
2013-01-06 08:04:00,25.5,10.4,0.00,North,6,0.0,0.0,52,0.00,,,0.00,VWS V14.01,2013-01-06 13:04:00,
2013-01-06 08:05:00,25.5,10.4,0.00,North,6,0.0,0.0,52,0.00,,,0.00,VWS V14.01,2013-01-06 13:05:00,
2013-01-06 08:08:00,25.7,10.5,0.00,North,6,0.0,0.0,52,0.00,,,0.00,VWS V14.01,2013-01-06 13:08:00,
2013-01-06 08:10:00,25.9,10.7,0.00,North,6,0.0,0.0,52,0.00,,,0.00,VWS V14.01,2013-01-06 13:10:00,
2013-01-06 08:14:00,26.1,10.9,0.00,North,6,0.0,0.0,52,0.00,,,0.00,VWS V14.01,2013-01-06 13:14:00,
2013-01-06 08:15:00,26.1,10.9,0.00,North,6,0.0,0.0,52,0.00,,,0.00,VWS V14.01,2013-01-06 13:15:00,
2013-01-06 08:16:00,26.1,10.9,0.00,North,6,0.0,0.0,52,0.00,,,0.00,VWS V14.01,2013-01-06 13:16:00,
2013-01-06 08:20:00,26.2,11.0,0.00,North,6,0.0,0.0,52,0.00,,,0.00,VWS V14.01,2013-01-06 13:20:00,
2013-01-06 08:21:00,26.4,11.6,0.00,North,6,0.0,0.0,53,0.00,,,0.00,VWS V14.01,2013-01-06 13:21:00,
2013-01-06 08:22:00,26.4,11.6,0.00,North,6,0.0,0.0,53,0.00,,,0.00,VWS V14.01,2013-01-06 13:22:00,
2013-01-06 08:25:00,26.6,11.8,0.00,North,6,0.0,0.0,53,0.00,,,0.00,VWS V14.01,2013-01-06 13:25:00,
2013-01-06 08:26:00,26.8,11.5,0.00,North,6,0.0,0.0,52,0.00,,,0.00,VWS V14.01,2013-01-06 13:26:00,
2013-01-06 08:28:00,26.8,11.5,0.00,North,6,0.0,0.0,52,0.00,,,0.00,VWS V14.01,2013-01-06 13:28:00,
2013-01-06 08:29:00,27.0,11.7,0.00,North,6,0.0,0.0,52,0.00,,,0.00,VWS V14.01,2013-01-06 13:29:00,
2013-01-06 08:31:00,27.0,11.7,0.00,North,6,0.0,0.0,52,0.00,,,0.00,VWS V14.01,2013-01-06 13:31:00,
2013-01-06 08:34:00,27.1,12.3,0.00,North,6,0.0,0.0,53,0.00,,,0.00,VWS V14.01,2013-01-06 13:34:00,
2013-01-06 08:37:00,27.3,12.5,0.00,North,6,0.0,0.0,53,0.00,,,0.00,VWS V14.01,2013-01-06 13:37:00,
2013-01-06 08:38:00,27.5,12.6,0.00,North,6,0.0,0.0,53,0.00,,,0.00,VWS V14.01,2013-01-06 13:38:00,
2013-01-06 08:39:00,27.5,12.6,0.00,North,6,0.0,0.0,53,0.00,,,0.00,VWS V14.01,2013-01-06 13:39:00,
2013-01-06 08:40:00,27.5,12.6,0.00,North,6,0.0,0.0,53,0.00,,,0.00,VWS V14.01,2013-01-06 13:40:00,
2013-01-06 08:42:00,27.7,12.8,0.00,North,6,0.0,0.0,53,0.00,,,0.00,VWS V14.01,2013-01-06 13:42:00,
2013-01-06 08:43:00,27.7,12.8,0.00,North,6,0.0,0.0,53,0.00,,,0.00,VWS V14.01,2013-01-06 13:43:00,
2013-01-06 08:45:00,27.9,13.0,0.00,North,6,0.0,0.0,53,0.00,,,0.00,VWS V14.01,2013-01-06 13:45:00,
2013-01-06 08:48:00,27.9,13.0,0.00,North,6,0.0,0.0,53,0.00,,,0.00,VWS V14.01,2013-01-06 13:48:00,
2013-01-06 08:50:00,28.0,13.1,0.00,North,6,0.0,0.0,53,0.00,,,0.00,VWS V14.01,2013-01-06 13:50:00,
2013-01-06 08:51:00,28.0,13.1,0.00,North,6,0.0,0.0,53,0.00,,,0.00,VWS V14.01,2013-01-06 13:51:00,
2013-01-06 08:53:00,28.2,13.3,0.00,North,6,0.0,0.0,53,0.00,,,0.00,VWS V14.01,2013-01-06 13:53:00,
2013-01-06 08:55:00,28.6,13.6,0.00,North,6,0.0,0.0,53,0.00,,,0.00,VWS V14.01,2013-01-06 13:55:00,
2013-01-06 08:56:00,28.6,13.6,0.00,North,6,0.0,0.0,53,0.00,,,0.00,VWS V14.01,2013-01-06 13:56:00,
2013-01-06 08:57:00,28.6,13.6,0.00,North,6,0.0,0.0,53,0.00,,,0.00,VWS V14.01,2013-01-06 13:57:00,
2013-01-06 08:59:00,28.8,13.8,0.00,North,6,0.0,0.0,53,0.00,,,0.00,VWS V14.01,2013-01-06 13:59:00,
2013-01-06 09:01:00,28.8,13.8,0.00,North,6,0.0,0.0,53,0.00,,,0.00,VWS V14.01,2013-01-06 14:01:00,
2013-01-06 09:02:00,28.9,14.0,0.00,North,6,0.0,0.0,53,0.00,,,0.00,VWS V14.01,2013-01-06 14:02:00,
2013-01-06 09:04:00,28.9,14.0,0.00,North,6,0.0,0.0,53,0.00,,,0.00,VWS V14.01,2013-01-06 14:04:00,
2013-01-06 09:08:00,29.1,14.1,0.00,North,6,0.0,0.0,53,0.00,,,0.00,VWS V14.01,2013-01-06 14:08:00,
2013-01-06 09:09:00,29.3,14.3,0.00,North,6,0.0,0.0,53,0.00,,,0.00,VWS V14.01,2013-01-06 14:09:00,
2013-01-06 09:10:00,29.3,14.3,0.00,North,6,0.0,0.0,53,0.00,,,0.00,VWS V14.01,2013-01-06 14:10:00,
2013-01-06 09:13:00,29.5,14.5,0.00,North,6,0.0,0.0,53,0.00,,,0.00,VWS V14.01,2013-01-06 14:13:00,
2013-01-06 09:14:00,29.5,14.9,0.00,North,6,0.0,0.0,54,0.00,,,0.00,VWS V14.01,2013-01-06 14:14:00,
2013-01-06 09:15:00,29.5,14.9,0.00,North,6,0.0,0.0,54,0.00,,,0.00,VWS V14.01,2013-01-06 14:15:00,
2013-01-06 09:16:00,29.7,15.1,0.00,North,6,0.0,0.0,54,0.00,,,0.00,VWS V14.01,2013-01-06 14:16:00,
2013-01-06 09:18:00,29.8,15.2,0.00,North,6,0.0,0.0,54,0.00,,,0.00,VWS V14.01,2013-01-06 14:18:00,
2013-01-06 09:19:00,29.8,15.2,0.00,North,6,0.0,0.0,54,0.00,,,0.00,VWS V14.01,2013-01-06 14:19:00,
2013-01-06 09:20:00,30.0,15.4,0.00,North,6,0.0,0.0,54,0.00,,,0.00,VWS V14.01,2013-01-06 14:20:00,
2013-01-06 09:22:00,30.0,15.4,0.00,North,6,0.0,0.0,54,0.00,,,0.00,VWS V14.01,2013-01-06 14:22:00,
2013-01-06 09:25:00,30.2,15.6,0.00,North,6,0.0,0.0,54,0.00,,,0.00,VWS V14.01,2013-01-06 14:25:00,
2013-01-06 09:27:00,30.4,15.7,0.00,North,6,0.0,0.0,54,0.00,,,0.00,VWS V14.01,2013-01-06 14:27:00,
2013-01-06 09:28:00,30.6,15.9,0.00,North,6,0.0,0.0,54,0.00,,,0.00,VWS V14.01,2013-01-06 14:28:00,
2013-01-06 09:30:00,30.6,15.9,0.00,North,6,0.0,0.0,54,0.00,,,0.00,VWS V14.01,2013-01-06 14:30:00,
2013-01-06 09:32:00,30.7,16.1,0.00,North,6,0.0,0.0,54,0.00,,,0.00,VWS V14.01,2013-01-06 14:32:00,
2013-01-06 09:33:00,30.9,16.2,0.00,North,6,0.0,0.0,54,0.00,,,0.00,VWS V14.01,2013-01-06 14:33:00,
2013-01-06 09:36:00,31.1,16.4,0.00,North,6,0.0,0.0,54,0.00,,,0.00,VWS V14.01,2013-01-06 14:36:00,
2013-01-06 09:37:00,31.1,16.4,0.00,North,6,0.0,0.0,54,0.00,,,0.00,VWS V14.01,2013-01-06 14:37:00,
2013-01-06 09:38:00,31.1,16.4,0.00,North,6,0.0,0.0,54,0.00,,,0.00,VWS V14.01,2013-01-06 14:38:00,
2013-01-06 09:39:00,31.3,16.6,0.00,North,6,0.0,0.0,54,0.00,,,0.00,VWS V14.01,2013-01-06 14:39:00,
2013-01-06 09:41:00,31.5,16.8,0.00,North,6,0.0,0.0,54,0.00,,,0.00,VWS V14.01,2013-01-06 14:41:00,
2013-01-06 09:43:00,31.5,16.8,0.00,North,6,0.0,0.0,54,0.00,,,0.00,VWS V14.01,2013-01-06 14:43:00,
2013-01-06 09:44:00,31.6,16.9,0.00,North,6,0.0,0.0,54,0.00,,,0.00,VWS V14.01,2013-01-06 14:44:00,
2013-01-06 09:48:00,31.6,16.9,0.00,North,6,0.0,0.0,54,0.00,,,0.00,VWS V14.01,2013-01-06 14:48:00,
2013-01-06 09:49:00,31.6,16.9,0.00,North,6,0.0,0.0,54,0.00,,,0.00,VWS V14.01,2013-01-06 14:49:00,
2013-01-06 09:51:00,31.6,16.9,0.00,North,6,0.0,0.0,54,0.00,,,0.00,VWS V14.01,2013-01-06 14:51:00,
2013-01-06 09:54:00,31.8,17.1,0.00,North,6,0.0,0.0,54,0.00,,,0.00,VWS V14.01,2013-01-06 14:54:00,
2013-01-06 09:55:00,32.0,17.7,0.00,North,6,0.0,0.0,55,0.00,,,0.00,VWS V14.01,2013-01-06 14:55:00,
2013-01-06 09:57:00,32.0,17.7,0.00,North,6,0.0,0.0,55,0.00,,,0.00,VWS V14.01,2013-01-06 14:57:00,
2013-01-06 09:59:00,32.2,17.8,0.00,North,6,0.0,0.0,55,0.00,,,0.00,VWS V14.01,2013-01-06 14:59:00,
2013-01-06 10:00:00,32.2,17.8,0.00,North,6,0.0,0.0,55,0.00,,,0.00,VWS V14.01,2013-01-06 15:00:00,
2013-01-06 10:02:00,32.2,17.8,0.00,North,6,0.0,0.0,55,0.00,,,0.00,VWS V14.01,2013-01-06 15:02:00,
2013-01-06 10:03:00,32.4,18.0,0.00,North,6,0.0,0.0,55,0.00,,,0.00,VWS V14.01,2013-01-06 15:03:00,
2013-01-06 10:05:00,32.4,18.0,0.00,North,6,0.0,0.0,55,0.00,,,0.00,VWS V14.01,2013-01-06 15:05:00,
2013-01-06 10:07:00,32.5,18.2,0.00,North,6,0.0,0.0,55,0.00,,,0.00,VWS V14.01,2013-01-06 15:07:00,
2013-01-06 10:08:00,32.5,18.2,0.00,North,6,0.0,0.0,55,0.00,,,0.00,VWS V14.01,2013-01-06 15:08:00,
2013-01-06 10:10:00,32.7,18.4,0.00,North,6,0.0,0.0,55,0.00,,,0.00,VWS V14.01,2013-01-06 15:10:00,
2013-01-06 10:12:00,32.7,18.4,0.00,North,6,0.0,0.0,55,0.00,,,0.00,VWS V14.01,2013-01-06 15:12:00,
2013-01-06 10:13:00,32.9,18.5,0.00,North,6,0.0,0.0,55,0.00,,,0.00,VWS V14.01,2013-01-06 15:13:00,
2013-01-06 10:14:00,32.9,18.5,0.00,North,6,0.0,0.0,55,0.00,,,0.00,VWS V14.01,2013-01-06 15:14:00,
2013-01-06 10:16:00,33.1,18.7,0.00,North,6,0.0,0.0,55,0.00,,,0.00,VWS V14.01,2013-01-06 15:16:00,
2013-01-06 10:18:00,33.3,18.9,0.00,North,6,0.0,0.0,55,0.00,,,0.00,VWS V14.01,2013-01-06 15:18:00,
2013-01-06 10:19:00,33.3,19.3,0.00,North,6,0.0,0.0,56,0.00,,,0.00,VWS V14.01,2013-01-06 15:19:00,
2013-01-06 10:21:00,33.4,19.4,0.00,North,6,0.0,0.0,56,0.00,,,0.00,VWS V14.01,2013-01-06 15:21:00,
2013-01-06 10:23:00,33.6,19.6,0.00,North,6,0.0,0.0,56,0.00,,,0.00,VWS V14.01,2013-01-06 15:23:00,
2013-01-06 10:24:00,33.6,19.6,0.00,North,6,0.0,0.0,56,0.00,,,0.00,VWS V14.01,2013-01-06 15:24:00,
2013-01-06 10:25:00,33.6,19.6,0.00,North,6,0.0,0.0,56,0.00,,,0.00,VWS V14.01,2013-01-06 15:25:00,
2013-01-06 10:26:00,33.8,19.4,0.00,North,6,0.0,0.0,55,0.00,,,0.00,VWS V14.01,2013-01-06 15:26:00,
2013-01-06 10:30:00,34.0,19.5,0.00,North,6,0.0,0.0,55,0.00,,,0.00,VWS V14.01,2013-01-06 15:30:00,
2013-01-06 10:31:00,34.0,19.5,0.00,North,6,0.0,0.0,55,0.00,,,0.00,VWS V14.01,2013-01-06 15:31:00,
2013-01-06 10:32:00,34.2,20.1,0.00,North,6,0.0,0.0,56,0.00,,,0.00,VWS V14.01,2013-01-06 15:32:00,
2013-01-06 10:36:00,34.3,20.3,0.00,North,6,0.0,0.0,56,0.00,,,0.00,VWS V14.01,2013-01-06 15:36:00,
2013-01-06 10:37:00,34.3,20.3,0.00,North,6,0.0,0.0,56,0.00,,,0.00,VWS V14.01,2013-01-06 15:37:00,
2013-01-06 10:39:00,34.5,20.5,0.00,North,6,0.0,0.0,56,0.00,,,0.00,VWS V14.01,2013-01-06 15:39:00,
2013-01-06 10:42:00,34.9,20.8,0.00,SSW,204,0.0,3.1,56,0.00,,,0.00,VWS V14.01,2013-01-06 15:42:00,
2013-01-06 10:43:00,34.9,20.8,0.00,SSW,204,0.0,0.0,56,0.00,,,0.00,VWS V14.01,2013-01-06 15:43:00,
2013-01-06 10:44:00,34.9,20.8,0.00,SSW,204,0.0,0.0,56,0.00,,,0.00,VWS V14.01,2013-01-06 15:44:00,
2013-01-06 10:48:00,35.2,21.1,0.00,SSW,204,0.0,0.0,56,0.00,,,0.00,VWS V14.01,2013-01-06 15:48:00,
2013-01-06 10:49:00,35.2,21.1,0.00,WSW,247,3.6,3.6,56,0.00,,,0.00,VWS V14.01,2013-01-06 15:49:00,
2013-01-06 10:51:00,35.4,21.3,0.00,West,261,0.0,0.0,56,0.00,,,0.00,VWS V14.01,2013-01-06 15:51:00,
2013-01-06 10:54:00,35.6,21.5,0.00,West,279,0.0,3.1,56,0.00,,,0.00,VWS V14.01,2013-01-06 15:54:00,
2013-01-06 10:56:00,36.0,21.4,0.00,WSW,244,0.0,0.0,55,0.00,,,0.00,VWS V14.01,2013-01-06 15:56:00,
2013-01-06 10:57:00,36.0,21.4,0.00,WSW,244,0.0,0.0,55,0.00,,,0.00,VWS V14.01,2013-01-06 15:57:00,
2013-01-06 10:59:00,36.1,21.5,0.00,SW,222,3.6,3.6,55,0.00,,,0.00,VWS V14.01,2013-01-06 15:59:00,
2013-01-06 11:01:00,36.3,21.7,0.00,SSW,212,0.0,0.0,55,0.00,,,0.00,VWS V14.01,2013-01-06 16:01:00,
2013-01-06 11:02:00,36.5,21.9,0.00,WSW,251,0.0,0.0,55,0.00,,,0.00,VWS V14.01,2013-01-06 16:02:00,
2013-01-06 11:04:00,36.7,21.6,0.00,WNW,291,3.1,3.6,54,0.00,,,0.00,VWS V14.01,2013-01-06 16:04:00,
2013-01-06 11:05:00,36.9,21.3,0.00,SSW,208,2.7,3.1,53,0.00,,,0.00,VWS V14.01,2013-01-06 16:05:00,
2013-01-06 11:07:00,36.9,21.3,0.00,SSW,207,0.0,0.0,53,0.00,,,0.00,VWS V14.01,2013-01-06 16:07:00,
2013-01-06 11:10:00,37.2,21.2,0.00,WSW,247,3.6,4.9,52,0.00,,,0.00,VWS V14.01,2013-01-06 16:10:00,
2013-01-06 11:12:00,37.6,21.1,0.00,WNW,297,4.0,4.0,51,0.00,,,0.00,VWS V14.01,2013-01-06 16:12:00,
2013-01-06 11:15:00,37.9,21.0,0.00,West,279,2.7,3.1,50,0.00,,,0.00,VWS V14.01,2013-01-06 16:15:00,
2013-01-06 11:17:00,38.1,20.7,0.00,WNW,287,2.7,2.7,49,0.00,,,0.00,VWS V14.01,2013-01-06 16:17:00,
2013-01-06 11:18:00,38.1,20.7,0.00,West,266,2.7,3.6,49,0.00,,,0.00,VWS V14.01,2013-01-06 16:18:00,
2013-01-06 11:19:00,38.1,17.6,0.00,SW,226,3.6,3.6,43,0.00,,,0.00,VWS V14.01,2013-01-06 16:19:00,
2013-01-06 11:21:00,38.1,17.6,0.00,SSW,203,0.0,3.6,43,0.00,,,0.00,VWS V14.01,2013-01-06 16:21:00,
2013-01-06 11:23:00,38.5,18.5,0.00,South,188,0.0,0.0,44,0.00,,,0.00,VWS V14.01,2013-01-06 16:23:00,
2013-01-06 11:24:00,38.5,18.5,0.00,WNW,300,4.0,4.0,44,0.00,,,0.00,VWS V14.01,2013-01-06 16:24:00,
2013-01-06 11:26:00,38.7,18.1,0.00,WSW,237,0.0,0.0,43,0.00,,,0.00,VWS V14.01,2013-01-06 16:26:00,
2013-01-06 11:27:00,38.7,18.1,0.00,West,271,4.0,4.0,43,0.00,,,0.00,VWS V14.01,2013-01-06 16:27:00,
2013-01-06 11:28:00,38.8,18.3,0.00,West,270,0.0,2.7,43,0.00,,,0.00,VWS V14.01,2013-01-06 16:28:00,
2013-01-06 11:29:00,38.8,18.3,0.00,West,272,4.0,4.0,43,0.00,,,0.00,VWS V14.01,2013-01-06 16:29:00,
2013-01-06 11:32:00,38.8,16.6,0.00,West,265,2.7,4.9,40,0.00,,,0.00,VWS V14.01,2013-01-06 16:32:00,
2013-01-06 11:33:00,39.0,17.9,0.00,WSW,237,2.2,2.7,42,0.00,,,0.00,VWS V14.01,2013-01-06 16:33:00,
2013-01-06 11:35:00,39.2,16.9,0.00,West,265,3.6,4.0,40,0.00,,,0.00,VWS V14.01,2013-01-06 16:35:00,
2013-01-06 11:37:00,39.4,17.1,0.00,South,178,4.9,4.9,40,0.00,,,0.00,VWS V14.01,2013-01-06 16:37:00,
2013-01-06 11:38:00,39.4,17.1,0.00,WSW,243,0.0,2.7,40,0.00,,,0.00,VWS V14.01,2013-01-06 16:38:00,
2013-01-06 11:39:00,39.4,17.1,0.00,WSW,247,2.7,2.7,40,0.00,,,0.00,VWS V14.01,2013-01-06 16:39:00,
2013-01-06 11:40:00,39.6,17.8,0.00,WSW,247,2.7,2.7,41,0.00,,,0.00,VWS V14.01,2013-01-06 16:40:00,
2013-01-06 11:43:00,39.9,17.0,0.00,West,268,0.0,0.0,39,0.00,,,0.00,VWS V14.01,2013-01-06 16:43:00,
2013-01-06 11:45:00,39.9,17.0,0.00,West,279,3.1,3.1,39,0.00,,,0.00,VWS V14.01,2013-01-06 16:45:00,
2013-01-06 11:46:00,39.9,17.0,0.00,West,266,3.1,3.1,39,0.00,,,0.00,VWS V14.01,2013-01-06 16:46:00,
2013-01-06 11:49:00,40.5,17.5,0.00,WNW,303,0.0,3.6,39,0.00,,,0.00,VWS V14.01,2013-01-06 16:49:00,
2013-01-06 11:50:00,40.5,17.5,0.00,West,267,2.7,3.6,39,0.00,,,0.00,VWS V14.01,2013-01-06 16:50:00,
2013-01-06 11:51:00,40.6,17.0,0.00,WSW,251,3.1,3.6,38,0.00,,,0.00,VWS V14.01,2013-01-06 16:51:00,
2013-01-06 11:52:00,40.6,17.6,0.00,SSW,205,4.0,4.0,39,0.00,,,0.00,VWS V14.01,2013-01-06 16:52:00,
2013-01-06 11:54:00,41.0,17.4,0.00,SSW,194,3.1,5.4,38,0.00,,,0.00,VWS V14.01,2013-01-06 16:54:00,
2013-01-06 11:56:00,41.2,17.5,0.00,SW,214,3.6,3.6,38,0.00,,,0.00,VWS V14.01,2013-01-06 16:56:00,
2013-01-06 11:57:00,41.2,17.5,0.00,SW,214,0.0,3.1,38,0.00,,,0.00,VWS V14.01,2013-01-06 16:57:00,
2013-01-06 11:58:00,41.4,18.3,0.00,SW,214,0.0,0.0,39,0.00,,,0.00,VWS V14.01,2013-01-06 16:58:00,
2013-01-06 12:00:00,41.5,17.2,0.00,West,262,0.0,4.0,37,0.00,,,0.00,VWS V14.01,2013-01-06 17:00:00,
2013-01-06 12:03:00,41.7,14.1,0.00,WNW,284,2.7,3.1,32,0.00,,,0.00,VWS V14.01,2013-01-06 17:03:00,
2013-01-06 12:04:00,41.7,14.8,0.00,WSW,255,3.6,3.6,33,0.00,,,0.00,VWS V14.01,2013-01-06 17:04:00,
2013-01-06 12:06:00,41.7,14.8,0.00,SSW,192,4.0,4.0,33,0.00,,,0.00,VWS V14.01,2013-01-06 17:06:00,
2013-01-06 12:09:00,42.1,12.9,0.00,South,175,2.7,3.1,30,0.00,,,0.00,VWS V14.01,2013-01-06 17:09:00,
2013-01-06 12:12:00,42.4,14.0,0.00,SW,215,5.4,5.4,31,0.00,,,0.00,VWS V14.01,2013-01-06 17:12:00,
2013-01-06 12:14:00,42.8,14.3,0.00,WSW,258,2.7,2.7,31,0.00,,,0.00,VWS V14.01,2013-01-06 17:14:00,
2013-01-06 12:16:00,43.2,13.8,0.00,NW,305,2.7,3.6,30,0.00,,,0.00,VWS V14.01,2013-01-06 17:16:00,
2013-01-06 12:17:00,43.2,13.8,0.00,WSW,255,4.0,4.0,30,0.00,,,0.00,VWS V14.01,2013-01-06 17:17:00,
2013-01-06 12:18:00,43.2,13.8,0.00,WSW,256,3.1,3.6,30,0.00,,,0.00,VWS V14.01,2013-01-06 17:18:00,
2013-01-06 12:19:00,43.3,14.8,0.00,West,277,5.4,5.4,31,0.00,,,0.00,VWS V14.01,2013-01-06 17:19:00,
2013-01-06 12:22:00,43.5,14.2,0.00,SSE,163,3.1,3.1,30,0.00,,,0.00,VWS V14.01,2013-01-06 17:22:00,
2013-01-06 12:24:00,43.7,13.5,0.00,SSE,159,0.0,2.7,29,0.00,,,0.00,VWS V14.01,2013-01-06 17:24:00,
2013-01-06 12:25:00,43.7,13.5,0.00,SSE,159,0.0,2.7,29,0.00,,,0.00,VWS V14.01,2013-01-06 17:25:00,
2013-01-06 12:27:00,43.9,13.7,0.00,West,272,3.6,6.3,29,0.00,,,0.00,VWS V14.01,2013-01-06 17:27:00,
2013-01-06 12:30:00,44.1,13.9,0.00,SSW,208,3.6,4.9,29,0.00,,,0.00,VWS V14.01,2013-01-06 17:30:00,
2013-01-06 12:31:00,44.1,13.9,0.00,SSW,208,3.6,4.9,29,0.00,,,0.00,VWS V14.01,2013-01-06 17:31:00,
2013-01-06 12:33:00,44.1,13.9,0.00,SSW,213,3.6,7.6,29,0.00,,,0.00,VWS V14.01,2013-01-06 17:33:00,
2013-01-06 12:36:00,44.1,13.1,0.00,SW,219,4.9,4.9,28,0.00,,,0.00,VWS V14.01,2013-01-06 17:36:00,
2013-01-06 12:39:00,44.1,13.1,0.00,WNW,289,3.1,3.6,28,0.00,,,0.00,VWS V14.01,2013-01-06 17:39:00,
2013-01-06 12:40:00,44.1,13.1,0.00,SW,223,4.0,4.9,28,0.00,,,0.00,VWS V14.01,2013-01-06 17:40:00,
2013-01-06 12:41:00,43.9,12.9,0.00,SSW,210,3.6,3.6,28,0.00,,,0.00,VWS V14.01,2013-01-06 17:41:00,
2013-01-06 12:42:00,44.1,13.1,0.00,WSW,245,3.6,4.0,28,0.00,,,0.00,VWS V14.01,2013-01-06 17:42:00,
2013-01-06 12:45:00,44.2,13.2,0.00,NW,310,3.1,7.6,28,0.00,,,0.00,VWS V14.01,2013-01-06 17:45:00,
2013-01-06 12:46:00,44.2,13.2,0.00,WSW,240,2.2,7.6,28,0.00,,,0.00,VWS V14.01,2013-01-06 17:46:00,
2013-01-06 12:48:00,44.4,14.2,0.00,SSW,197,2.7,4.9,29,0.00,,,0.00,VWS V14.01,2013-01-06 17:48:00,
2013-01-06 12:50:00,44.4,13.4,0.00,West,265,3.6,4.0,28,0.00,,,0.00,VWS V14.01,2013-01-06 17:50:00,
2013-01-06 12:51:00,44.4,13.4,0.00,West,268,5.8,5.8,28,0.00,,,0.00,VWS V14.01,2013-01-06 17:51:00,
2013-01-06 12:53:00,44.4,13.4,0.00,West,278,8.1,8.1,28,0.00,,,0.00,VWS V14.01,2013-01-06 17:53:00,
2013-01-06 12:55:00,44.2,10.7,0.00,WSW,254,5.4,5.4,25,0.00,,,0.00,VWS V14.01,2013-01-06 17:55:00,
2013-01-06 12:56:00,44.2,13.2,0.00,WSW,245,4.0,4.0,28,0.00,,,0.00,VWS V14.01,2013-01-06 17:56:00,
2013-01-06 12:57:00,44.2,13.2,0.00,WSW,255,4.0,4.0,28,0.00,,,0.00,VWS V14.01,2013-01-06 17:57:00,
2013-01-06 12:59:00,44.2,13.2,0.00,West,274,6.3,8.1,28,0.00,,,0.00,VWS V14.01,2013-01-06 17:59:00,
2013-01-06 13:02:00,44.2,13.2,0.00,WNW,282,3.1,3.1,28,0.00,,,0.00,VWS V14.01,2013-01-06 18:02:00,
2013-01-06 13:04:00,44.2,8.8,0.00,SSW,200,4.0,7.2,23,0.00,,,0.00,VWS V14.01,2013-01-06 18:04:00,
2013-01-06 13:07:00,44.4,8.9,0.00,WSW,257,6.3,6.3,23,0.00,,,0.00,VWS V14.01,2013-01-06 18:07:00,
2013-01-06 13:09:00,44.6,11.0,0.00,West,263,2.7,2.7,25,0.00,,,0.00,VWS V14.01,2013-01-06 18:09:00,
2013-01-06 13:12:00,44.6,11.0,0.00,West,278,3.6,5.8,25,0.00,,,0.00,VWS V14.01,2013-01-06 18:12:00,
2013-01-06 13:14:00,44.8,11.1,0.00,WSW,244,2.7,4.0,25,0.00,,,0.00,VWS V14.01,2013-01-06 18:14:00,
2013-01-06 13:18:00,45.0,11.3,0.00,South,169,2.7,3.1,25,0.00,,,0.00,VWS V14.01,2013-01-06 18:18:00,
2013-01-06 13:22:00,45.1,8.6,0.00,WSW,247,2.7,3.1,22,0.00,,,0.00,VWS V14.01,2013-01-06 18:22:00,
2013-01-06 13:23:00,45.0,8.4,0.00,WSW,254,3.1,3.1,22,0.00,,,0.00,VWS V14.01,2013-01-06 18:23:00,
2013-01-06 13:25:00,45.1,8.6,0.00,WSW,252,5.8,5.8,22,0.00,,,0.00,VWS V14.01,2013-01-06 18:25:00,
2013-01-06 13:28:00,45.1,6.5,0.00,WSW,257,5.4,5.4,20,0.00,,,0.00,VWS V14.01,2013-01-06 18:28:00,
2013-01-06 13:29:00,45.1,8.6,0.00,West,275,5.8,5.8,22,0.00,,,0.00,VWS V14.01,2013-01-06 18:29:00,
2013-01-06 13:33:00,45.1,6.5,0.00,WSW,254,4.9,4.9,20,0.00,,,0.00,VWS V14.01,2013-01-06 18:33:00,
2013-01-06 13:34:00,45.1,6.5,0.00,WNW,284,3.6,3.6,20,0.00,,,0.00,VWS V14.01,2013-01-06 18:34:00,
2013-01-06 13:38:00,45.1,6.5,0.00,SW,236,3.1,3.6,20,0.00,,,0.00,VWS V14.01,2013-01-06 18:38:00,
2013-01-06 13:39:00,45.1,6.5,0.00,West,281,3.6,3.6,20,0.00,,,0.00,VWS V14.01,2013-01-06 18:39:00,
2013-01-06 13:40:00,45.1,6.5,0.00,SSW,206,3.6,4.9,20,0.00,,,0.00,VWS V14.01,2013-01-06 18:40:00,
2013-01-06 13:43:00,45.3,6.6,0.00,West,273,0.0,0.0,20,0.00,,,0.00,VWS V14.01,2013-01-06 18:43:00,
2013-01-06 13:44:00,45.3,6.6,0.00,WSW,256,2.2,5.4,20,0.00,,,0.00,VWS V14.01,2013-01-06 18:44:00,
2013-01-06 13:45:00,45.3,6.6,0.00,West,278,3.6,4.9,20,0.00,,,0.00,VWS V14.01,2013-01-06 18:45:00,
2013-01-06 13:46:00,45.3,6.6,0.00,WSW,257,4.0,4.9,20,0.00,,,0.00,VWS V14.01,2013-01-06 18:46:00,
2013-01-06 13:48:00,45.3,6.6,0.00,West,268,4.5,5.8,20,0.00,,,0.00,VWS V14.01,2013-01-06 18:48:00,
2013-01-06 13:50:00,45.1,6.5,0.00,WSW,249,4.9,4.9,20,0.00,,,0.00,VWS V14.01,2013-01-06 18:50:00,
2013-01-06 13:52:00,45.1,6.5,0.00,WSW,257,2.7,4.9,20,0.00,,,0.00,VWS V14.01,2013-01-06 18:52:00,
2013-01-06 13:53:00,45.1,6.5,0.00,WSW,250,4.0,4.0,20,0.00,,,0.00,VWS V14.01,2013-01-06 18:53:00,
2013-01-06 13:56:00,45.3,6.6,0.00,SSE,160,5.8,5.8,20,0.00,,,0.00,VWS V14.01,2013-01-06 18:56:00,
2013-01-06 13:57:00,45.3,6.6,0.00,WSW,238,4.9,5.4,20,0.00,,,0.00,VWS V14.01,2013-01-06 18:57:00,
2013-01-06 13:58:00,45.3,6.6,0.00,WSW,258,3.1,6.7,20,0.00,,,0.00,VWS V14.01,2013-01-06 18:58:00,
2013-01-06 14:00:00,45.5,6.8,0.00,WSW,239,3.6,5.4,20,0.00,,,0.00,VWS V14.01,2013-01-06 19:00:00,
2013-01-06 14:02:00,45.5,6.8,0.00,South,181,4.0,4.0,20,0.00,,,0.00,VWS V14.01,2013-01-06 19:02:00,
2013-01-06 14:03:00,45.5,6.8,0.00,SSW,210,7.2,8.3,20,0.00,,,0.00,VWS V14.01,2013-01-06 19:03:00,
2013-01-06 14:04:00,45.5,6.8,0.00,West,268,2.7,7.2,20,0.00,,,0.00,VWS V14.01,2013-01-06 19:04:00,
2013-01-06 14:07:00,45.7,6.9,0.00,SSE,151,3.1,3.6,20,0.00,,,0.00,VWS V14.01,2013-01-06 19:07:00,
2013-01-06 14:08:00,45.9,7.1,0.00,WSW,241,2.7,4.0,20,0.00,,,0.00,VWS V14.01,2013-01-06 19:08:00,
2013-01-06 14:09:00,45.9,7.1,0.00,WSW,246,3.1,3.1,20,0.00,,,0.00,VWS V14.01,2013-01-06 19:09:00,
2013-01-06 14:11:00,45.9,7.1,0.00,ESE,121,4.5,4.5,20,0.00,,,0.00,VWS V14.01,2013-01-06 19:11:00,
2013-01-06 14:14:00,45.9,7.1,0.00,SW,233,4.0,4.9,20,0.00,,,0.00,VWS V14.01,2013-01-06 19:14:00,
2013-01-06 14:15:00,46.0,7.2,0.00,SW,232,2.2,4.0,20,0.00,,,0.00,VWS V14.01,2013-01-06 19:15:00,
2013-01-06 14:17:00,46.0,7.2,0.00,SW,226,3.6,5.8,20,0.00,,,0.00,VWS V14.01,2013-01-06 19:17:00,
2013-01-06 14:19:00,46.0,7.2,0.00,SW,236,3.1,3.1,20,0.00,,,0.00,VWS V14.01,2013-01-06 19:19:00,
2013-01-06 14:20:00,46.2,7.4,0.00,West,267,3.1,4.0,20,0.00,,,0.00,VWS V14.01,2013-01-06 19:20:00,
2013-01-06 14:21:00,46.2,7.4,0.00,WNW,286,3.6,4.9,20,0.00,,,0.00,VWS V14.01,2013-01-06 19:21:00,
2013-01-06 14:22:00,46.2,7.4,0.00,WSW,246,3.6,4.0,20,0.00,,,0.00,VWS V14.01,2013-01-06 19:22:00,
2013-01-06 14:24:00,46.2,7.4,0.00,WSW,247,8.1,8.1,20,0.00,,,0.00,VWS V14.01,2013-01-06 19:24:00,
2013-01-06 14:26:00,46.2,7.4,0.00,West,274,3.6,8.1,20,0.00,,,0.00,VWS V14.01,2013-01-06 19:26:00,
2013-01-06 14:28:00,46.2,3.8,0.00,WSW,242,4.9,5.8,17,0.00,,,0.00,VWS V14.01,2013-01-06 19:28:00,
2013-01-06 14:29:00,46.2,3.8,0.00,West,268,3.6,6.3,17,0.00,,,0.00,VWS V14.01,2013-01-06 19:29:00,
2013-01-06 14:33:00,46.2,3.8,0.00,SSW,209,7.6,13.6,17,0.00,,,0.00,VWS V14.01,2013-01-06 19:33:00,
2013-01-06 14:35:00,46.2,3.8,0.00,SW,226,4.0,5.8,17,0.00,,,0.00,VWS V14.01,2013-01-06 19:35:00,
2013-01-06 14:36:00,46.2,3.8,0.00,South,189,5.4,7.2,17,0.00,,,0.00,VWS V14.01,2013-01-06 19:36:00,
2013-01-06 14:39:00,46.2,3.8,0.00,West,272,5.4,5.4,17,0.00,,,0.00,VWS V14.01,2013-01-06 19:39:00,
2013-01-06 14:40:00,46.2,3.8,0.00,SSW,210,5.8,5.8,17,0.00,,,0.00,VWS V14.01,2013-01-06 19:40:00,
2013-01-06 14:42:00,46.0,3.7,0.00,WSW,256,4.0,5.8,17,0.00,,,0.00,VWS V14.01,2013-01-06 19:42:00,
2013-01-06 14:45:00,45.9,3.5,0.00,West,263,6.3,8.7,17,0.00,,,0.00,VWS V14.01,2013-01-06 19:45:00,
2013-01-06 14:48:00,45.7,3.4,0.00,SSE,150,0.0,5.8,17,0.00,,,0.00,VWS V14.01,2013-01-06 19:48:00,
2013-01-06 14:51:00,45.5,3.2,0.00,South,181,5.8,10.1,17,0.00,,,0.00,VWS V14.01,2013-01-06 19:51:00,
2013-01-06 14:53:00,45.5,3.2,0.00,WSW,241,5.4,7.2,17,0.00,,,0.00,VWS V14.01,2013-01-06 19:53:00,
2013-01-06 14:58:00,45.5,3.2,0.00,SSE,157,5.8,6.3,17,0.00,,,0.00,VWS V14.01,2013-01-06 19:58:00,
2013-01-06 15:00:00,45.5,3.2,0.00,SW,233,3.1,3.6,17,0.00,,,0.00,VWS V14.01,2013-01-06 20:00:00,
2013-01-06 15:05:00,45.5,3.2,0.00,West,267,3.1,3.1,17,0.00,,,0.00,VWS V14.01,2013-01-06 20:05:00,
2013-01-06 15:06:00,45.3,3.1,0.00,West,261,4.5,4.5,17,0.00,,,0.00,VWS V14.01,2013-01-06 20:06:00,
2013-01-06 15:10:00,45.3,3.1,0.00,South,184,4.0,5.4,17,0.00,,,0.00,VWS V14.01,2013-01-06 20:10:00,
2013-01-06 15:11:00,45.3,3.1,0.00,West,263,4.0,4.0,17,0.00,,,0.00,VWS V14.01,2013-01-06 20:11:00,
2013-01-06 15:14:00,45.3,3.1,0.00,SSW,206,3.1,3.1,17,0.00,,,0.00,VWS V14.01,2013-01-06 20:14:00,
2013-01-06 15:16:00,45.3,3.1,0.00,West,265,4.0,5.4,17,0.00,,,0.00,VWS V14.01,2013-01-06 20:16:00,
2013-01-06 15:17:00,45.3,3.1,0.00,West,267,3.1,5.4,17,0.00,,,0.00,VWS V14.01,2013-01-06 20:17:00,
2013-01-06 15:20:00,45.3,3.1,0.00,SSW,198,8.1,8.3,17,0.00,,,0.00,VWS V14.01,2013-01-06 20:20:00,
2013-01-06 15:22:00,45.3,3.1,0.00,WNW,286,4.9,6.3,17,0.00,,,0.00,VWS V14.01,2013-01-06 20:22:00,
2013-01-06 15:23:00,45.3,3.1,0.00,SW,222,2.7,5.4,17,0.00,,,0.00,VWS V14.01,2013-01-06 20:23:00,
2013-01-06 15:24:00,45.3,3.1,0.00,SW,218,3.1,5.4,17,0.00,,,0.00,VWS V14.01,2013-01-06 20:24:00,
2013-01-06 15:26:00,45.1,2.9,0.00,WSW,252,4.9,4.9,17,0.00,,,0.00,VWS V14.01,2013-01-06 20:26:00,
2013-01-06 15:29:00,45.1,2.9,0.00,WNW,286,4.0,4.0,17,0.00,,,0.00,VWS V14.01,2013-01-06 20:29:00,
2013-01-06 15:30:00,45.1,2.9,0.00,SW,225,3.1,3.6,17,0.00,,,0.00,VWS V14.01,2013-01-06 20:30:00,
2013-01-06 15:31:00,45.1,2.9,0.00,WSW,238,0.0,2.7,17,0.00,,,0.00,VWS V14.01,2013-01-06 20:31:00,
2013-01-06 15:32:00,45.1,2.9,0.00,WSW,239,3.1,3.1,17,0.00,,,0.00,VWS V14.01,2013-01-06 20:32:00,
2013-01-06 15:34:00,45.0,2.8,0.00,SSE,151,4.9,4.9,17,0.00,,,0.00,VWS V14.01,2013-01-06 20:34:00,
2013-01-06 15:35:00,45.0,2.8,0.00,West,262,2.7,3.1,17,0.00,,,0.00,VWS V14.01,2013-01-06 20:35:00,
2013-01-06 15:36:00,45.0,2.8,0.00,SW,221,3.1,5.4,17,0.00,,,0.00,VWS V14.01,2013-01-06 20:36:00,
2013-01-06 15:37:00,45.0,2.8,0.00,SSW,209,2.7,2.7,17,0.00,,,0.00,VWS V14.01,2013-01-06 20:37:00,
2013-01-06 15:41:00,45.0,2.8,0.00,West,264,2.7,3.6,17,0.00,,,0.00,VWS V14.01,2013-01-06 20:41:00,
2013-01-06 15:42:00,44.8,2.6,0.00,West,268,4.0,4.0,17,0.00,,,0.00,VWS V14.01,2013-01-06 20:42:00,
2013-01-06 15:46:00,44.8,2.6,0.00,West,266,3.1,3.1,17,0.00,,,0.00,VWS V14.01,2013-01-06 20:46:00,
2013-01-06 15:48:00,44.8,2.6,0.00,WSW,239,4.9,4.9,17,0.00,,,0.00,VWS V14.01,2013-01-06 20:48:00,
2013-01-06 15:49:00,44.8,2.6,0.00,West,269,2.2,6.3,17,0.00,,,0.00,VWS V14.01,2013-01-06 20:49:00,
2013-01-06 15:51:00,44.8,2.6,0.00,SSW,203,2.7,5.8,17,0.00,,,0.00,VWS V14.01,2013-01-06 20:51:00,
2013-01-06 15:53:00,45.0,2.8,0.00,SW,214,3.6,5.4,17,0.00,,,0.00,VWS V14.01,2013-01-06 20:53:00,
2013-01-06 15:54:00,45.0,2.8,0.00,WSW,240,3.6,3.6,17,0.00,,,0.00,VWS V14.01,2013-01-06 20:54:00,
2013-01-06 15:58:00,44.8,2.6,0.00,SW,232,4.0,4.0,17,0.00,,,0.00,VWS V14.01,2013-01-06 20:58:00,
2013-01-06 15:59:00,44.8,2.6,0.00,WSW,251,0.0,4.9,17,0.00,,,0.00,VWS V14.01,2013-01-06 20:59:00,
2013-01-06 16:00:00,44.8,2.6,0.00,SSW,200,3.6,3.6,17,0.00,,,0.00,VWS V14.01,2013-01-06 21:00:00,
2013-01-06 16:01:00,44.8,2.6,0.00,SW,226,5.8,6.3,17,0.00,,,0.00,VWS V14.01,2013-01-06 21:01:00,
2013-01-06 16:05:00,44.8,2.6,0.00,South,172,2.7,2.7,17,0.00,,,0.00,VWS V14.01,2013-01-06 21:05:00,
2013-01-06 16:06:00,44.8,2.6,0.00,WNW,302,0.0,3.1,17,0.00,,,0.00,VWS V14.01,2013-01-06 21:06:00,
2013-01-06 16:07:00,44.6,2.5,0.00,WNW,303,3.6,3.6,17,0.00,,,0.00,VWS V14.01,2013-01-06 21:07:00,
2013-01-06 16:12:00,44.6,2.5,0.00,NW,305,3.6,5.8,17,0.00,,,0.00,VWS V14.01,2013-01-06 21:12:00,
2013-01-06 16:13:00,44.6,2.5,0.00,WSW,238,3.6,4.9,17,0.00,,,0.00,VWS V14.01,2013-01-06 21:13:00,
2013-01-06 16:16:00,44.4,3.6,0.00,SW,226,0.0,0.0,18,0.00,,,0.00,VWS V14.01,2013-01-06 21:16:00,
2013-01-06 16:17:00,44.4,3.6,0.00,SW,226,0.0,0.0,18,0.00,,,0.00,VWS V14.01,2013-01-06 21:17:00,
2013-01-06 16:18:00,44.4,3.6,0.00,SW,226,0.0,0.0,18,0.00,,,0.00,VWS V14.01,2013-01-06 21:18:00,
2013-01-06 16:20:00,44.4,3.6,0.00,WNW,288,2.2,2.2,18,0.00,,,0.00,VWS V14.01,2013-01-06 21:20:00,
2013-01-06 16:22:00,44.2,3.4,0.00,WNW,297,3.1,5.8,18,0.00,,,0.00,VWS V14.01,2013-01-06 21:22:00,
2013-01-06 16:23:00,44.2,3.4,0.00,West,279,3.6,5.8,18,0.00,,,0.00,VWS V14.01,2013-01-06 21:23:00,
2013-01-06 16:25:00,44.2,3.4,0.00,SW,236,2.2,3.1,18,0.00,,,0.00,VWS V14.01,2013-01-06 21:25:00,
2013-01-06 16:26:00,44.2,3.4,0.00,WSW,257,0.0,0.0,18,0.00,,,0.00,VWS V14.01,2013-01-06 21:26:00,
2013-01-06 16:28:00,44.2,3.4,0.00,SW,230,0.0,2.7,18,0.00,,,0.00,VWS V14.01,2013-01-06 21:28:00,
2013-01-06 16:30:00,44.2,3.4,0.00,WSW,250,0.0,0.0,18,0.00,,,0.00,VWS V14.01,2013-01-06 21:30:00,
2013-01-06 16:31:00,44.1,3.3,0.00,WSW,250,0.0,0.0,18,0.00,,,0.00,VWS V14.01,2013-01-06 21:31:00,
2013-01-06 16:32:00,44.1,3.3,0.00,WSW,250,2.2,2.2,18,0.00,,,0.00,VWS V14.01,2013-01-06 21:32:00,
2013-01-06 16:35:00,44.1,3.3,0.00,SW,223,2.7,2.7,18,0.00,,,0.00,VWS V14.01,2013-01-06 21:35:00,
2013-01-06 16:36:00,44.1,3.3,0.00,WSW,250,0.0,3.1,18,0.00,,,0.00,VWS V14.01,2013-01-06 21:36:00,
2013-01-06 16:37:00,44.1,3.3,0.00,NW,305,3.1,3.1,18,0.00,,,0.00,VWS V14.01,2013-01-06 21:37:00,
2013-01-06 16:38:00,44.1,3.3,0.00,SW,235,3.1,3.1,18,0.00,,,0.00,VWS V14.01,2013-01-06 21:38:00,
2013-01-06 16:41:00,43.9,3.1,0.00,West,277,4.0,4.0,18,0.00,,,0.00,VWS V14.01,2013-01-06 21:41:00,
2013-01-06 16:43:00,43.9,3.1,0.00,West,263,0.0,0.0,18,0.00,,,0.00,VWS V14.01,2013-01-06 21:43:00,
2013-01-06 16:44:00,43.9,3.1,0.00,West,272,0.0,0.0,18,0.00,,,0.00,VWS V14.01,2013-01-06 21:44:00,
2013-01-06 16:48:00,43.7,3.0,0.00,West,276,3.1,3.1,18,0.00,,,0.00,VWS V14.01,2013-01-06 21:48:00,
2013-01-06 16:49:00,43.7,3.0,0.00,West,278,0.0,0.0,18,0.00,,,0.00,VWS V14.01,2013-01-06 21:49:00,
2013-01-06 16:51:00,43.7,3.0,0.00,WSW,256,2.7,3.6,18,0.00,,,0.00,VWS V14.01,2013-01-06 21:51:00,
2013-01-06 16:53:00,43.7,3.0,0.00,WNW,283,0.0,2.2,18,0.00,,,0.00,VWS V14.01,2013-01-06 21:53:00,
2013-01-06 16:55:00,43.7,3.0,0.00,SW,225,3.6,7.6,18,0.00,,,0.00,VWS V14.01,2013-01-06 21:55:00,
2013-01-06 16:57:00,43.5,2.8,0.00,West,267,3.6,3.6,18,0.00,,,0.00,VWS V14.01,2013-01-06 21:57:00,
2013-01-06 16:58:00,43.5,2.8,0.00,West,266,0.0,2.2,18,0.00,,,0.00,VWS V14.01,2013-01-06 21:58:00,
2013-01-06 17:00:00,43.5,2.8,0.00,WNW,287,3.6,3.6,18,0.00,,,0.00,VWS V14.01,2013-01-06 22:00:00,
2013-01-06 17:02:00,43.5,2.8,0.00,WSW,253,0.0,0.0,18,0.00,,,0.00,VWS V14.01,2013-01-06 22:02:00,
2013-01-06 17:03:00,43.3,2.7,0.00,WSW,253,0.0,0.0,18,0.00,,,0.00,VWS V14.01,2013-01-06 22:03:00,
2013-01-06 17:06:00,43.3,2.7,0.00,SW,219,0.0,3.6,18,0.00,,,0.00,VWS V14.01,2013-01-06 22:06:00,
2013-01-06 17:07:00,43.3,2.7,0.00,SW,218,0.0,0.0,18,0.00,,,0.00,VWS V14.01,2013-01-06 22:07:00,
2013-01-06 17:08:00,43.3,2.7,0.00,SW,229,0.0,2.7,18,0.00,,,0.00,VWS V14.01,2013-01-06 22:08:00,
2013-01-06 17:09:00,43.3,2.7,0.00,SW,229,0.0,0.0,18,0.00,,,0.00,VWS V14.01,2013-01-06 22:09:00,
2013-01-06 17:11:00,43.2,2.5,0.00,SW,229,0.0,0.0,18,0.00,,,0.00,VWS V14.01,2013-01-06 22:11:00,
2013-01-06 17:13:00,43.0,2.4,0.00,WSW,246,2.7,3.1,18,0.00,,,0.00,VWS V14.01,2013-01-06 22:13:00,
2013-01-06 17:14:00,43.0,2.4,0.00,WSW,246,0.0,2.7,18,0.00,,,0.00,VWS V14.01,2013-01-06 22:14:00,
2013-01-06 17:15:00,43.0,2.4,0.00,SW,226,3.1,3.6,18,0.00,,,0.00,VWS V14.01,2013-01-06 22:15:00,
2013-01-06 17:17:00,43.0,2.4,0.00,SW,226,0.0,0.0,18,0.00,,,0.00,VWS V14.01,2013-01-06 22:17:00,
2013-01-06 17:19:00,43.0,2.4,0.00,WSW,250,0.0,0.0,18,0.00,,,0.00,VWS V14.01,2013-01-06 22:19:00,
2013-01-06 17:22:00,42.8,2.2,0.00,SW,236,0.0,0.0,18,0.00,,,0.00,VWS V14.01,2013-01-06 22:22:00,
2013-01-06 17:25:00,42.8,2.2,0.00,SW,233,0.0,0.0,18,0.00,,,0.00,VWS V14.01,2013-01-06 22:25:00,
2013-01-06 17:26:00,42.8,2.2,0.00,SW,233,0.0,0.0,18,0.00,,,0.00,VWS V14.01,2013-01-06 22:26:00,
2013-01-06 17:28:00,42.8,2.2,0.00,SSW,198,2.2,3.1,18,0.00,,,0.00,VWS V14.01,2013-01-06 22:28:00,
2013-01-06 17:31:00,42.8,2.2,0.00,SSW,198,0.0,0.0,18,0.00,,,0.00,VWS V14.01,2013-01-06 22:31:00,
2013-01-06 17:32:00,42.8,2.2,0.00,SSW,198,0.0,0.0,18,0.00,,,0.00,VWS V14.01,2013-01-06 22:32:00,
2013-01-06 17:33:00,42.6,2.1,0.00,SSW,198,0.0,0.0,18,0.00,,,0.00,VWS V14.01,2013-01-06 22:33:00,
2013-01-06 17:37:00,42.6,2.1,0.00,SSW,198,0.0,0.0,18,0.00,,,0.00,VWS V14.01,2013-01-06 22:37:00,
2013-01-06 17:40:00,42.6,2.1,0.00,SSW,206,0.0,3.6,18,0.00,,,0.00,VWS V14.01,2013-01-06 22:40:00,
2013-01-06 17:42:00,42.4,1.9,0.00,SW,226,2.7,2.7,18,0.00,,,0.00,VWS V14.01,2013-01-06 22:42:00,
2013-01-06 17:43:00,42.4,1.9,0.00,WSW,253,0.0,3.6,18,0.00,,,0.00,VWS V14.01,2013-01-06 22:43:00,
2013-01-06 17:44:00,42.4,1.9,0.00,WSW,253,0.0,3.6,18,0.00,,,0.00,VWS V14.01,2013-01-06 22:44:00,
2013-01-06 17:47:00,42.4,1.9,0.00,WSW,253,0.0,0.0,18,0.00,,,0.00,VWS V14.01,2013-01-06 22:47:00,
2013-01-06 17:49:00,42.4,1.9,0.00,WSW,253,0.0,0.0,18,0.00,,,0.00,VWS V14.01,2013-01-06 22:49:00,
2013-01-06 17:50:00,42.4,1.9,0.00,WSW,253,0.0,0.0,18,0.00,,,0.00,VWS V14.01,2013-01-06 22:50:00,
2013-01-06 17:53:00,42.3,1.8,0.00,WSW,253,0.0,0.0,18,0.00,,,0.00,VWS V14.01,2013-01-06 22:53:00,
2013-01-06 17:55:00,42.3,1.8,0.00,WSW,253,0.0,0.0,18,0.00,,,0.00,VWS V14.01,2013-01-06 22:55:00,
2013-01-06 17:56:00,42.3,1.8,0.00,WSW,253,0.0,2.2,18,0.00,,,0.00,VWS V14.01,2013-01-06 22:56:00,
2013-01-06 17:58:00,42.3,1.8,0.00,SSW,204,0.0,0.0,18,0.00,,,0.00,VWS V14.01,2013-01-06 22:58:00,
2013-01-06 18:00:00,42.3,1.8,0.00,SSW,204,0.0,0.0,18,0.00,,,0.00,VWS V14.01,2013-01-06 23:00:00,
2013-01-06 18:02:00,42.3,1.8,0.00,West,267,0.0,0.0,18,0.00,,,0.00,VWS V14.01,2013-01-06 23:02:00,
2013-01-06 18:04:00,42.3,1.8,0.00,West,266,0.0,0.0,18,0.00,,,0.00,VWS V14.01,2013-01-06 23:04:00,
2013-01-06 18:07:00,42.3,1.8,0.00,West,262,0.0,0.0,18,0.00,,,0.00,VWS V14.01,2013-01-06 23:07:00,
2013-01-06 18:08:00,42.3,1.8,0.00,West,262,0.0,0.0,18,0.00,,,0.00,VWS V14.01,2013-01-06 23:08:00,
2013-01-06 18:09:00,42.1,1.6,0.00,West,262,0.0,0.0,18,0.00,,,0.00,VWS V14.01,2013-01-06 23:09:00,
2013-01-06 18:13:00,42.1,1.6,0.00,West,262,0.0,0.0,18,0.00,,,0.00,VWS V14.01,2013-01-06 23:13:00,
2013-01-06 18:14:00,42.1,1.6,0.00,West,262,0.0,0.0,18,0.00,,,0.00,VWS V14.01,2013-01-06 23:14:00,
2013-01-06 18:15:00,42.1,1.6,0.00,West,262,0.0,0.0,18,0.00,,,0.00,VWS V14.01,2013-01-06 23:15:00,
2013-01-06 18:18:00,42.1,1.6,0.00,West,262,0.0,0.0,18,0.00,,,0.00,VWS V14.01,2013-01-06 23:18:00,
2013-01-06 18:20:00,42.1,1.6,0.00,West,262,0.0,0.0,18,0.00,,,0.00,VWS V14.01,2013-01-06 23:20:00,
2013-01-06 18:21:00,42.1,1.6,0.00,West,262,0.0,0.0,18,0.00,,,0.00,VWS V14.01,2013-01-06 23:21:00,
2013-01-06 18:22:00,41.9,1.5,0.00,West,262,0.0,0.0,18,0.00,,,0.00,VWS V14.01,2013-01-06 23:22:00,
2013-01-06 18:26:00,41.7,1.4,0.00,West,262,0.0,0.0,18,0.00,,,0.00,VWS V14.01,2013-01-06 23:26:00,
2013-01-06 18:27:00,41.7,1.4,0.00,West,262,0.0,0.0,18,0.00,,,0.00,VWS V14.01,2013-01-06 23:27:00,
2013-01-06 18:28:00,41.7,1.4,0.00,West,262,0.0,0.0,18,0.00,,,0.00,VWS V14.01,2013-01-06 23:28:00,
2013-01-06 18:32:00,41.5,1.2,0.00,West,262,0.0,0.0,18,0.00,,,0.00,VWS V14.01,2013-01-06 23:32:00,
2013-01-06 18:33:00,41.5,1.2,0.00,West,262,0.0,0.0,18,0.00,,,0.00,VWS V14.01,2013-01-06 23:33:00,
2013-01-06 18:35:00,41.5,1.2,0.00,West,262,0.0,0.0,18,0.00,,,0.00,VWS V14.01,2013-01-06 23:35:00,
2013-01-06 18:37:00,41.4,1.0,0.00,West,262,0.0,0.0,18,0.00,,,0.00,VWS V14.01,2013-01-06 23:37:00,
2013-01-06 18:38:00,41.4,1.0,0.00,West,262,0.0,0.0,18,0.00,,,0.00,VWS V14.01,2013-01-06 23:38:00,
2013-01-06 18:42:00,41.0,0.8,0.00,West,262,0.0,0.0,18,0.00,,,0.00,VWS V14.01,2013-01-06 23:42:00,
2013-01-06 18:43:00,41.0,0.8,0.00,West,262,0.0,0.0,18,0.00,,,0.00,VWS V14.01,2013-01-06 23:43:00,
2013-01-06 18:44:00,41.0,0.8,0.00,West,262,0.0,0.0,18,0.00,,,0.00,VWS V14.01,2013-01-06 23:44:00,
2013-01-06 18:46:00,40.8,0.6,0.00,West,262,0.0,0.0,18,0.00,,,0.00,VWS V14.01,2013-01-06 23:46:00,
2013-01-06 18:47:00,40.8,0.6,0.00,West,262,0.0,0.0,18,0.00,,,0.00,VWS V14.01,2013-01-06 23:47:00,
2013-01-06 18:49:00,40.6,0.5,0.00,West,262,0.0,0.0,18,0.00,,,0.00,VWS V14.01,2013-01-06 23:49:00,
2013-01-06 18:51:00,40.6,0.5,0.00,West,262,0.0,0.0,18,0.00,,,0.00,VWS V14.01,2013-01-06 23:51:00,
2013-01-06 18:54:00,40.5,0.3,0.00,West,262,0.0,0.0,18,0.00,,,0.00,VWS V14.01,2013-01-06 23:54:00,
2013-01-06 18:57:00,40.5,0.3,0.00,West,262,0.0,0.0,18,0.00,,,0.00,VWS V14.01,2013-01-06 23:57:00,
2013-01-06 18:59:00,40.3,0.2,0.00,West,262,0.0,0.0,18,0.00,,,0.00,VWS V14.01,2013-01-06 23:59:00,
2013-01-06 19:00:00,40.3,0.2,0.00,West,262,0.0,0.0,18,0.00,,,0.00,VWS V14.01,2013-01-07 00:00:00,
2013-01-06 19:01:00,40.3,3.5,0.00,West,262,0.0,0.0,21,0.00,,,0.00,VWS V14.01,2013-01-07 00:01:00,
2013-01-06 19:04:00,40.3,3.5,0.00,West,262,0.0,0.0,21,0.00,,,0.00,VWS V14.01,2013-01-07 00:04:00,
2013-01-06 19:05:00,40.1,3.3,0.00,West,262,0.0,0.0,21,0.00,,,0.00,VWS V14.01,2013-01-07 00:05:00,
2013-01-06 19:06:00,40.1,3.3,0.00,West,262,0.0,0.0,21,0.00,,,0.00,VWS V14.01,2013-01-07 00:06:00,
2013-01-06 19:08:00,40.1,3.3,0.00,West,262,0.0,0.0,21,0.00,,,0.00,VWS V14.01,2013-01-07 00:08:00,
2013-01-06 19:09:00,39.9,3.2,0.00,West,262,0.0,0.0,21,0.00,,,0.00,VWS V14.01,2013-01-07 00:09:00,
2013-01-06 19:10:00,39.9,3.2,0.00,West,262,0.0,0.0,21,0.00,,,0.00,VWS V14.01,2013-01-07 00:10:00,
2013-01-06 19:11:00,39.9,3.2,0.00,West,262,0.0,0.0,21,0.00,,,0.00,VWS V14.01,2013-01-07 00:11:00,
2013-01-06 19:13:00,39.9,3.2,0.00,West,262,0.0,0.0,21,0.00,,,0.00,VWS V14.01,2013-01-07 00:13:00,
2013-01-06 19:14:00,39.7,3.0,0.00,West,262,0.0,0.0,21,0.00,,,0.00,VWS V14.01,2013-01-07 00:14:00,
2013-01-06 19:15:00,39.7,3.0,0.00,West,262,0.0,0.0,21,0.00,,,0.00,VWS V14.01,2013-01-07 00:15:00,
2013-01-06 19:17:00,39.7,3.0,0.00,West,262,0.0,0.0,21,0.00,,,0.00,VWS V14.01,2013-01-07 00:17:00,
2013-01-06 19:20:00,39.7,3.0,0.00,West,262,0.0,0.0,21,0.00,,,0.00,VWS V14.01,2013-01-07 00:20:00,
2013-01-06 19:21:00,39.7,3.0,0.00,West,262,0.0,0.0,21,0.00,,,0.00,VWS V14.01,2013-01-07 00:21:00,
2013-01-06 19:22:00,39.7,3.0,0.00,West,262,0.0,0.0,21,0.00,,,0.00,VWS V14.01,2013-01-07 00:22:00,
2013-01-06 19:23:00,39.7,3.0,0.00,West,263,0.0,0.0,21,0.00,,,0.00,VWS V14.01,2013-01-07 00:23:00,
2013-01-06 19:27:00,39.6,2.9,0.00,West,262,0.0,0.0,21,0.00,,,0.00,VWS V14.01,2013-01-07 00:27:00,
2013-01-06 19:28:00,39.6,2.9,0.00,West,262,0.0,0.0,21,0.00,,,0.00,VWS V14.01,2013-01-07 00:28:00,
2013-01-06 19:29:00,39.4,2.7,0.00,West,262,0.0,0.0,21,0.00,,,0.00,VWS V14.01,2013-01-07 00:29:00,
2013-01-06 19:32:00,39.4,2.7,0.00,West,262,0.0,0.0,21,0.00,,,0.00,VWS V14.01,2013-01-07 00:32:00,
2013-01-06 19:33:00,39.4,2.7,0.00,West,262,0.0,0.0,21,0.00,,,0.00,VWS V14.01,2013-01-07 00:33:00,
2013-01-06 19:37:00,39.4,2.7,0.00,West,262,0.0,0.0,21,0.00,,,0.00,VWS V14.01,2013-01-07 00:37:00,
2013-01-06 19:38:00,39.4,2.7,0.00,West,262,0.0,0.0,21,0.00,,,0.00,VWS V14.01,2013-01-07 00:38:00,
2013-01-06 19:43:00,39.2,2.6,0.00,West,262,0.0,0.0,21,0.00,,,0.00,VWS V14.01,2013-01-07 00:43:00,
2013-01-06 19:44:00,39.2,2.6,0.00,West,262,0.0,0.0,21,0.00,,,0.00,VWS V14.01,2013-01-07 00:44:00,
2013-01-06 19:45:00,39.2,2.6,0.00,West,262,0.0,0.0,21,0.00,,,0.00,VWS V14.01,2013-01-07 00:45:00,
2013-01-06 19:48:00,39.2,2.6,0.00,West,262,0.0,0.0,21,0.00,,,0.00,VWS V14.01,2013-01-07 00:48:00,
2013-01-06 19:50:00,39.2,2.6,0.00,West,262,0.0,0.0,21,0.00,,,0.00,VWS V14.01,2013-01-07 00:50:00,
2013-01-06 19:52:00,39.2,2.6,0.00,West,262,0.0,0.0,21,0.00,,,0.00,VWS V14.01,2013-01-07 00:52:00,
2013-01-06 19:54:00,39.2,2.6,0.00,West,262,0.0,0.0,21,0.00,,,0.00,VWS V14.01,2013-01-07 00:54:00,
2013-01-06 19:55:00,39.2,2.6,0.00,West,262,0.0,0.0,21,0.00,,,0.00,VWS V14.01,2013-01-07 00:55:00,
2013-01-06 19:57:00,39.2,2.6,0.00,West,262,0.0,0.0,21,0.00,,,0.00,VWS V14.01,2013-01-07 00:57:00,
2013-01-06 19:58:00,39.2,2.6,0.00,West,262,0.0,0.0,21,0.00,,,0.00,VWS V14.01,2013-01-07 00:58:00,
2013-01-06 20:00:00,39.2,2.6,0.00,West,262,0.0,0.0,21,0.00,,,0.00,VWS V14.01,2013-01-07 01:00:00,
2013-01-06 20:03:00,39.2,2.6,0.00,West,262,0.0,0.0,21,0.00,,,0.00,VWS V14.01,2013-01-07 01:03:00,
2013-01-06 20:04:00,39.4,2.7,0.00,West,262,0.0,0.0,21,0.00,,,0.00,VWS V14.01,2013-01-07 01:04:00,
2013-01-06 20:06:00,39.4,2.7,0.00,West,262,0.0,0.0,21,0.00,,,0.00,VWS V14.01,2013-01-07 01:06:00,
2013-01-06 20:08:00,39.4,2.7,0.00,West,262,0.0,0.0,21,0.00,,,0.00,VWS V14.01,2013-01-07 01:08:00,
2013-01-06 20:10:00,39.4,2.7,0.00,West,262,0.0,0.0,21,0.00,,,0.00,VWS V14.01,2013-01-07 01:10:00,
2013-01-06 20:12:00,39.2,2.6,0.00,West,262,0.0,0.0,21,0.00,,,0.00,VWS V14.01,2013-01-07 01:12:00,
2013-01-06 20:13:00,39.2,2.6,0.00,West,262,0.0,0.0,21,0.00,,,0.00,VWS V14.01,2013-01-07 01:13:00,
2013-01-06 20:14:00,39.2,2.6,0.00,West,262,0.0,0.0,21,0.00,,,0.00,VWS V14.01,2013-01-07 01:14:00,
2013-01-06 20:15:00,39.2,4.5,0.00,West,262,0.0,0.0,23,0.00,,,0.00,VWS V14.01,2013-01-07 01:15:00,
2013-01-06 20:17:00,39.2,4.5,0.00,West,262,0.0,0.0,23,0.00,,,0.00,VWS V14.01,2013-01-07 01:17:00,
2013-01-06 20:20:00,39.2,4.5,0.00,West,262,0.0,0.0,23,0.00,,,0.00,VWS V14.01,2013-01-07 01:20:00,
2013-01-06 20:22:00,39.2,4.5,0.00,West,262,0.0,0.0,23,0.00,,,0.00,VWS V14.01,2013-01-07 01:22:00,
2013-01-06 20:23:00,39.2,4.5,0.00,West,262,0.0,0.0,23,0.00,,,0.00,VWS V14.01,2013-01-07 01:23:00,
2013-01-06 20:25:00,39.2,4.5,0.00,West,262,0.0,0.0,23,0.00,,,0.00,VWS V14.01,2013-01-07 01:25:00,
2013-01-06 20:27:00,39.2,4.5,0.00,West,262,0.0,0.0,23,0.00,,,0.00,VWS V14.01,2013-01-07 01:27:00,
2013-01-06 20:28:00,39.4,4.7,0.00,West,262,0.0,0.0,23,0.00,,,0.00,VWS V14.01,2013-01-07 01:28:00,
2013-01-06 20:29:00,39.4,4.7,0.00,West,262,0.0,0.0,23,0.00,,,0.00,VWS V14.01,2013-01-07 01:29:00,
2013-01-06 20:32:00,39.2,4.5,0.00,West,262,0.0,0.0,23,0.00,,,0.00,VWS V14.01,2013-01-07 01:32:00,
2013-01-06 20:34:00,39.2,4.5,0.00,West,262,0.0,0.0,23,0.00,,,0.00,VWS V14.01,2013-01-07 01:34:00,
2013-01-06 20:35:00,39.2,4.5,0.00,West,262,0.0,0.0,23,0.00,,,0.00,VWS V14.01,2013-01-07 01:35:00,
2013-01-06 20:37:00,39.2,4.5,0.00,West,263,0.0,0.0,23,0.00,,,0.00,VWS V14.01,2013-01-07 01:37:00,
2013-01-06 20:39:00,39.2,4.5,0.00,West,262,0.0,0.0,23,0.00,,,0.00,VWS V14.01,2013-01-07 01:39:00,
2013-01-06 20:40:00,39.2,4.5,0.00,West,262,0.0,0.0,23,0.00,,,0.00,VWS V14.01,2013-01-07 01:40:00,
2013-01-06 20:42:00,39.2,4.5,0.00,West,262,0.0,0.0,23,0.00,,,0.00,VWS V14.01,2013-01-07 01:42:00,
2013-01-06 20:44:00,39.0,5.3,0.00,West,262,0.0,0.0,24,0.00,,,0.00,VWS V14.01,2013-01-07 01:44:00,
2013-01-06 20:45:00,39.0,5.3,0.00,West,262,0.0,0.0,24,0.00,,,0.00,VWS V14.01,2013-01-07 01:45:00,
2013-01-06 20:47:00,38.8,5.2,0.00,West,262,0.0,0.0,24,0.00,,,0.00,VWS V14.01,2013-01-07 01:47:00,
2013-01-06 20:49:00,38.8,5.2,0.00,West,262,0.0,0.0,24,0.00,,,0.00,VWS V14.01,2013-01-07 01:49:00,
2013-01-06 20:50:00,38.8,5.2,0.00,West,262,0.0,0.0,24,0.00,,,0.00,VWS V14.01,2013-01-07 01:50:00,
2013-01-06 20:53:00,38.8,6.9,0.00,West,262,0.0,0.0,26,0.00,,,0.00,VWS V14.01,2013-01-07 01:53:00,
2013-01-06 20:55:00,38.7,6.7,0.00,West,262,0.0,0.0,26,0.00,,,0.00,VWS V14.01,2013-01-07 01:55:00,
2013-01-06 20:56:00,38.7,6.7,0.00,West,262,0.0,0.0,26,0.00,,,0.00,VWS V14.01,2013-01-07 01:56:00,
2013-01-06 20:57:00,38.7,6.7,0.00,West,262,0.0,0.0,26,0.00,,,0.00,VWS V14.01,2013-01-07 01:57:00,
2013-01-06 20:59:00,38.5,6.6,0.00,West,262,0.0,0.0,26,0.00,,,0.00,VWS V14.01,2013-01-07 01:59:00,
2013-01-06 21:00:00,38.5,6.6,0.00,West,262,0.0,0.0,26,0.00,,,0.00,VWS V14.01,2013-01-07 02:00:00,
2013-01-06 21:01:00,38.5,6.6,0.00,West,262,0.0,0.0,26,0.00,,,0.00,VWS V14.01,2013-01-07 02:01:00,
2013-01-06 21:02:00,38.5,6.6,0.00,West,262,0.0,0.0,26,0.00,,,0.00,VWS V14.01,2013-01-07 02:02:00,
2013-01-06 21:06:00,38.1,6.3,0.00,West,262,0.0,0.0,26,0.00,,,0.00,VWS V14.01,2013-01-07 02:06:00,
2013-01-06 21:07:00,38.1,6.3,0.00,West,262,0.0,0.0,26,0.00,,,0.00,VWS V14.01,2013-01-07 02:07:00,
2013-01-06 21:08:00,38.1,6.3,0.00,West,262,0.0,0.0,26,0.00,,,0.00,VWS V14.01,2013-01-07 02:08:00,
2013-01-06 21:12:00,37.9,6.1,0.00,West,262,0.0,0.0,26,0.00,,,0.00,VWS V14.01,2013-01-07 02:12:00,
2013-01-06 21:13:00,37.9,6.1,0.00,West,262,0.0,0.0,26,0.00,,,0.00,VWS V14.01,2013-01-07 02:13:00,
2013-01-06 21:14:00,37.9,6.1,0.00,West,262,0.0,0.0,26,0.00,,,0.00,VWS V14.01,2013-01-07 02:14:00,
2013-01-06 21:17:00,37.8,6.0,0.00,West,262,0.0,0.0,26,0.00,,,0.00,VWS V14.01,2013-01-07 02:17:00,
2013-01-06 21:18:00,37.8,6.0,0.00,West,262,0.0,0.0,26,0.00,,,0.00,VWS V14.01,2013-01-07 02:18:00,
2013-01-06 21:20:00,37.6,5.8,0.00,West,262,0.0,0.0,26,0.00,,,0.00,VWS V14.01,2013-01-07 02:20:00,
2013-01-06 21:23:00,37.6,8.2,0.00,West,262,0.0,0.0,29,0.00,,,0.00,VWS V14.01,2013-01-07 02:23:00,
2013-01-06 21:24:00,37.6,8.2,0.00,West,262,0.0,0.0,29,0.00,,,0.00,VWS V14.01,2013-01-07 02:24:00,
2013-01-06 21:26:00,37.6,8.2,0.00,West,262,0.0,0.0,29,0.00,,,0.00,VWS V14.01,2013-01-07 02:26:00,
2013-01-06 21:28:00,37.4,8.1,0.00,West,262,0.0,0.0,29,0.00,,,0.00,VWS V14.01,2013-01-07 02:28:00,
2013-01-06 21:29:00,37.4,8.1,0.00,West,262,0.0,0.0,29,0.00,,,0.00,VWS V14.01,2013-01-07 02:29:00,
2013-01-06 21:31:00,37.4,8.1,0.00,West,262,0.0,0.0,29,0.00,,,0.00,VWS V14.01,2013-01-07 02:31:00,
2013-01-06 21:34:00,37.4,8.1,0.00,West,262,0.0,0.0,29,0.00,,,0.00,VWS V14.01,2013-01-07 02:34:00,
2013-01-06 21:36:00,37.4,8.1,0.00,West,262,0.0,0.0,29,0.00,,,0.00,VWS V14.01,2013-01-07 02:36:00,
2013-01-06 21:39:00,37.4,8.1,0.00,West,262,0.0,0.0,29,0.00,,,0.00,VWS V14.01,2013-01-07 02:39:00,
2013-01-06 21:41:00,37.4,8.1,0.00,West,262,0.0,0.0,29,0.00,,,0.00,VWS V14.01,2013-01-07 02:41:00,
2013-01-06 21:43:00,37.4,8.1,0.00,West,262,0.0,0.0,29,0.00,,,0.00,VWS V14.01,2013-01-07 02:43:00,
2013-01-06 21:45:00,37.4,8.1,0.00,West,262,0.0,0.0,29,0.00,,,0.00,VWS V14.01,2013-01-07 02:45:00,
2013-01-06 21:47:00,37.2,8.6,0.00,West,262,0.0,0.0,30,0.00,,,0.00,VWS V14.01,2013-01-07 02:47:00,
2013-01-06 21:48:00,37.2,8.6,0.00,West,262,0.0,0.0,30,0.00,,,0.00,VWS V14.01,2013-01-07 02:48:00,
2013-01-06 21:51:00,37.2,8.6,0.00,West,262,0.0,0.0,30,0.00,,,0.00,VWS V14.01,2013-01-07 02:51:00,
2013-01-06 21:52:00,37.2,8.6,0.00,West,262,0.0,0.0,30,0.00,,,0.00,VWS V14.01,2013-01-07 02:52:00,
2013-01-06 21:54:00,37.2,8.6,0.00,West,262,0.0,0.0,30,0.00,,,0.00,VWS V14.01,2013-01-07 02:54:00,
2013-01-06 21:56:00,37.2,8.6,0.00,West,262,0.0,0.0,30,0.00,,,0.00,VWS V14.01,2013-01-07 02:56:00,
2013-01-06 21:58:00,37.2,8.6,0.00,West,262,0.0,0.0,30,0.00,,,0.00,VWS V14.01,2013-01-07 02:58:00,
2013-01-06 22:00:00,37.2,8.6,0.00,West,262,0.0,0.0,30,0.00,,,0.00,VWS V14.01,2013-01-07 03:00:00,
2013-01-06 22:03:00,37.2,8.6,0.00,West,262,0.0,0.0,30,0.00,,,0.00,VWS V14.01,2013-01-07 03:03:00,
2013-01-06 22:04:00,37.2,8.6,0.00,West,262,0.0,0.0,30,0.00,,,0.00,VWS V14.01,2013-01-07 03:04:00,
2013-01-06 22:06:00,37.2,8.6,0.00,West,262,0.0,0.0,30,0.00,,,0.00,VWS V14.01,2013-01-07 03:06:00,
2013-01-06 22:08:00,37.2,8.6,0.00,West,262,0.0,0.0,30,0.00,,,0.00,VWS V14.01,2013-01-07 03:08:00,
2013-01-06 22:09:00,37.2,8.6,0.00,West,262,0.0,0.0,30,0.00,,,0.00,VWS V14.01,2013-01-07 03:09:00,
2013-01-06 22:12:00,37.2,8.6,0.00,West,262,0.0,0.0,30,0.00,,,0.00,VWS V14.01,2013-01-07 03:12:00,
2013-01-06 22:13:00,37.2,8.6,0.00,West,262,0.0,0.0,30,0.00,,,0.00,VWS V14.01,2013-01-07 03:13:00,
2013-01-06 22:14:00,37.2,8.6,0.00,West,263,0.0,0.0,30,0.00,,,0.00,VWS V14.01,2013-01-07 03:14:00,
2013-01-06 22:19:00,37.2,8.6,0.00,West,262,0.0,0.0,30,0.00,,,0.00,VWS V14.01,2013-01-07 03:19:00,
2013-01-06 22:20:00,37.2,8.6,0.00,West,262,0.0,0.0,30,0.00,,,0.00,VWS V14.01,2013-01-07 03:20:00,
2013-01-06 22:23:00,37.2,8.6,0.00,West,262,0.0,0.0,30,0.00,,,0.00,VWS V14.01,2013-01-07 03:23:00,
2013-01-06 22:24:00,37.2,8.6,0.00,West,262,0.0,0.0,30,0.00,,,0.00,VWS V14.01,2013-01-07 03:24:00,
2013-01-06 22:25:00,37.2,8.6,0.00,West,262,0.0,0.0,30,0.00,,,0.00,VWS V14.01,2013-01-07 03:25:00,
2013-01-06 22:26:00,37.2,8.6,0.00,West,262,0.0,0.0,30,0.00,,,0.00,VWS V14.01,2013-01-07 03:26:00,
2013-01-06 22:28:00,37.2,8.6,0.00,West,262,0.0,0.0,30,0.00,,,0.00,VWS V14.01,2013-01-07 03:28:00,
2013-01-06 22:31:00,37.2,8.6,0.00,West,262,0.0,0.0,30,0.00,,,0.00,VWS V14.01,2013-01-07 03:31:00,
2013-01-06 22:33:00,37.2,8.6,0.00,West,262,0.0,0.0,30,0.00,,,0.00,VWS V14.01,2013-01-07 03:33:00,
2013-01-06 22:36:00,37.2,8.6,0.00,West,262,0.0,0.0,30,0.00,,,0.00,VWS V14.01,2013-01-07 03:36:00,
2013-01-06 22:37:00,37.2,8.6,0.00,West,262,0.0,0.0,30,0.00,,,0.00,VWS V14.01,2013-01-07 03:37:00,
2013-01-06 22:41:00,37.2,8.6,0.00,West,262,0.0,0.0,30,0.00,,,0.00,VWS V14.01,2013-01-07 03:41:00,
2013-01-06 22:42:00,37.2,8.6,0.00,West,262,0.0,0.0,30,0.00,,,0.00,VWS V14.01,2013-01-07 03:42:00,
2013-01-06 22:45:00,37.2,8.6,0.00,West,262,0.0,0.0,30,0.00,,,0.00,VWS V14.01,2013-01-07 03:45:00,
2013-01-06 22:46:00,37.2,8.6,0.00,West,262,0.0,0.0,30,0.00,,,0.00,VWS V14.01,2013-01-07 03:46:00,
2013-01-06 22:47:00,37.4,8.8,0.00,West,262,0.0,0.0,30,0.00,,,0.00,VWS V14.01,2013-01-07 03:47:00,
2013-01-06 22:49:00,37.4,8.8,0.00,West,262,0.0,0.0,30,0.00,,,0.00,VWS V14.01,2013-01-07 03:49:00,
2013-01-06 22:51:00,37.4,8.8,0.00,West,262,0.0,0.0,30,0.00,,,0.00,VWS V14.01,2013-01-07 03:51:00,
2013-01-06 22:52:00,37.4,8.8,0.00,West,262,0.0,0.0,30,0.00,,,0.00,VWS V14.01,2013-01-07 03:52:00,
2013-01-06 22:53:00,37.4,8.8,0.00,West,262,0.0,0.0,30,0.00,,,0.00,VWS V14.01,2013-01-07 03:53:00,
2013-01-06 22:55:00,37.4,8.8,0.00,West,262,0.0,0.0,30,0.00,,,0.00,VWS V14.01,2013-01-07 03:55:00,
2013-01-06 22:58:00,37.4,8.8,0.00,West,262,0.0,0.0,30,0.00,,,0.00,VWS V14.01,2013-01-07 03:58:00,
2013-01-06 22:59:00,37.6,9.0,0.00,West,262,0.0,0.0,30,0.00,,,0.00,VWS V14.01,2013-01-07 03:59:00,
2013-01-06 23:01:00,37.6,9.0,0.00,West,262,0.0,0.0,30,0.00,,,0.00,VWS V14.01,2013-01-07 04:01:00,
2013-01-06 23:04:00,37.6,9.0,0.00,West,262,0.0,0.0,30,0.00,,,0.00,VWS V14.01,2013-01-07 04:04:00,
2013-01-06 23:06:00,37.6,9.0,0.00,West,262,0.0,0.0,30,0.00,,,0.00,VWS V14.01,2013-01-07 04:06:00,
2013-01-06 23:07:00,37.6,9.7,0.00,West,262,0.0,0.0,31,0.00,,,0.00,VWS V14.01,2013-01-07 04:07:00,
2013-01-06 23:10:00,37.6,9.7,0.00,West,262,0.0,0.0,31,0.00,,,0.00,VWS V14.01,2013-01-07 04:10:00,
2013-01-06 23:12:00,37.6,9.7,0.00,West,262,0.0,0.0,31,0.00,,,0.00,VWS V14.01,2013-01-07 04:12:00,
2013-01-06 23:13:00,37.6,9.7,0.00,West,262,0.0,0.0,31,0.00,,,0.00,VWS V14.01,2013-01-07 04:13:00,
2013-01-06 23:14:00,37.6,9.7,0.00,West,262,0.0,0.0,31,0.00,,,0.00,VWS V14.01,2013-01-07 04:14:00,
2013-01-06 23:16:00,37.6,9.7,0.00,West,262,0.0,0.0,31,0.00,,,0.00,VWS V14.01,2013-01-07 04:16:00,
2013-01-06 23:17:00,37.6,9.7,0.00,West,262,0.0,0.0,31,0.00,,,0.00,VWS V14.01,2013-01-07 04:17:00,
2013-01-06 23:18:00,37.6,9.7,0.00,West,262,0.0,0.0,31,0.00,,,0.00,VWS V14.01,2013-01-07 04:18:00,
2013-01-06 23:20:00,37.6,9.7,0.00,West,262,0.0,0.0,31,0.00,,,0.00,VWS V14.01,2013-01-07 04:20:00,
2013-01-06 23:22:00,37.6,9.7,0.00,West,262,0.0,0.0,31,0.00,,,0.00,VWS V14.01,2013-01-07 04:22:00,
2013-01-06 23:23:00,37.6,9.7,0.00,West,262,0.0,0.0,31,0.00,,,0.00,VWS V14.01,2013-01-07 04:23:00,
2013-01-06 23:24:00,37.8,9.9,0.00,West,262,0.0,0.0,31,0.00,,,0.00,VWS V14.01,2013-01-07 04:24:00,
2013-01-06 23:26:00,37.8,9.9,0.00,West,262,0.0,0.0,31,0.00,,,0.00,VWS V14.01,2013-01-07 04:26:00,
2013-01-06 23:28:00,37.8,9.9,0.00,West,262,0.0,0.0,31,0.00,,,0.00,VWS V14.01,2013-01-07 04:28:00,
2013-01-06 23:30:00,37.9,10.0,0.00,West,262,0.0,0.0,31,0.00,,,0.00,VWS V14.01,2013-01-07 04:30:00,
2013-01-06 23:31:00,37.9,10.0,0.00,West,262,0.0,0.0,31,0.00,,,0.00,VWS V14.01,2013-01-07 04:31:00,
2013-01-06 23:35:00,38.1,10.2,0.00,West,262,0.0,0.0,31,0.00,,,0.00,VWS V14.01,2013-01-07 04:35:00,
2013-01-06 23:36:00,38.1,10.2,0.00,West,262,0.0,0.0,31,0.00,,,0.00,VWS V14.01,2013-01-07 04:36:00,
2013-01-06 23:41:00,38.5,10.5,0.00,West,267,2.2,3.1,31,0.00,,,0.00,VWS V14.01,2013-01-07 04:41:00,
2013-01-06 23:42:00,38.7,10.6,0.00,West,267,0.0,2.2,31,0.00,,,0.00,VWS V14.01,2013-01-07 04:42:00,
2013-01-06 23:43:00,38.7,10.6,0.00,West,267,0.0,0.0,31,0.00,,,0.00,VWS V14.01,2013-01-07 04:43:00,
2013-01-06 23:46:00,39.0,11.0,0.00,West,267,0.0,0.0,31,0.00,,,0.00,VWS V14.01,2013-01-07 04:46:00,
2013-01-06 23:49:00,39.2,10.4,0.00,West,261,0.0,0.0,30,0.00,,,0.00,VWS V14.01,2013-01-07 04:49:00,
2013-01-06 23:51:00,39.2,10.4,0.00,WSW,248,2.7,3.6,30,0.00,,,0.00,VWS V14.01,2013-01-07 04:51:00,
2013-01-06 23:52:00,39.2,10.4,0.00,WSW,250,3.1,3.1,30,0.00,,,0.00,VWS V14.01,2013-01-07 04:52:00,
2013-01-06 23:55:00,39.4,10.5,0.00,West,260,4.0,4.0,30,0.00,,,0.00,VWS V14.01,2013-01-07 04:55:00,
2013-01-06 23:57:00,39.4,10.5,0.00,West,259,2.7,4.0,30,0.00,,,0.00,VWS V14.01,2013-01-07 04:57:00,
2013-01-06 23:59:00,39.4,10.5,0.00,West,262,0.0,0.0,30,0.00,,,0.00,VWS V14.01,2013-01-07 04:59:00,